| time (UTC) | temp F | wind direction | speed knots | gust knots | rain 1hr in | rain 24hr in | rain mn in | humidity % | barometer mb |
| 20260906101955 | 57 | 322 | 0.0 | 0.0 | 0.00 | 0.00 | 0.00 | 91 | 1016.6 |
| 20260906101848 | 57 | 342 | 0.0 | 0.0 | 0.00 | 0.00 | 0.00 | 91 | 1016.7 |
| 20260906101708 | 57 | 330 | 0.0 | 0.0 | 0.00 | 0.00 | 0.00 | 91 | 1016.6 |
| 20260906101608 | 57 | 316 | 0.0 | 0.0 | 0.00 | 0.00 | 0.00 | 91 | 1016.6 |
| 20260906101512 | 57 | 350 | 0.0 | 0.0 | 0.00 | 0.00 | 0.00 | 91 | 1016.6 |
| 20260906101434 | 57 | 350 | 0.0 | 0.0 | 0.00 | 0.00 | 0.00 | 91 | 1016.6 |
| 20260906101306 | 57 | 325 | 0.0 | 0.0 | 0.00 | 0.00 | 0.00 | 91 | 1016.6 |
| 20260906101221 | 57 | 348 | 0.0 | 0.0 | 0.00 | 0.00 | 0.00 | 91 | 1016.6 |
| 20260906101031 | 57 | 334 | 0.0 | 0.0 | 0.00 | 0.00 | 0.00 | 91 | 1016.6 |
| 20260906100950 | 57 | 355 | 0.0 | 0.0 | 0.00 | 0.00 | 0.00 | 91 | 1016.6 |
| 20260906100819 | 57 | 329 | 0.0 | 0.0 | 0.00 | 0.00 | 0.00 | 91 | 1016.6 |
| 20260906100739 | 57 | 324 | 0.0 | 0.0 | 0.00 | 0.00 | 0.00 | 91 | 1016.6 |
| 20260906100610 | 57 | 348 | 0.0 | 0.0 | 0.00 | 0.00 | 0.00 | 91 | 1016.6 |
| 20260906100424 | 57 | 324 | 0.0 | 0.0 | 0.00 | 0.00 | 0.00 | 91 | 1016.6 |
| 20260906100326 | 57 | 333 | 0.0 | 0.0 | 0.00 | 0.00 | 0.00 | 91 | 1016.6 |
| 20260906100247 | 57 | 330 | 0.0 | 0.0 | 0.00 | 0.00 | 0.00 | 91 | 1016.6 |
| 20260906100006 | 57 | 331 | 0.0 | 0.0 | 0.00 | 0.00 | 0.00 | 91 | 1016.6 |
| 20260906095839 | 57 | 338 | 0.0 | 0.0 | 0.00 | 0.00 | 0.00 | 91 | 1016.6 |
| 20260906095810 | 57 | 329 | 0.0 | 0.0 | 0.00 | 0.00 | 0.00 | 92 | 1016.6 |
| 20260906095719 | 57 | 342 | 0.0 | 0.0 | 0.00 | 0.00 | 0.00 | 91 | 1016.6 |
| 20260906095640 | 57 | 342 | 0.0 | 0.0 | 0.00 | 0.00 | 0.00 | 92 | 1016.6 |
| 20260906095508 | 57 | 355 | 0.0 | 0.0 | 0.00 | 0.00 | 0.00 | 91 | 1016.4 |
| 20260906095421 | 57 | 334 | 0.0 | 0.0 | 0.00 | 0.00 | 0.00 | 92 | 1016.4 |
| 20260906095231 | 57 | 344 | 0.0 | 0.0 | 0.00 | 0.00 | 0.00 | 92 | 1016.4 |
| 20260906095146 | 57 | 331 | 0.0 | 0.0 | 0.00 | 0.00 | 0.00 | 91 | 1016.4 |
| 20260906094956 | 57 | 341 | 0.0 | 0.0 | 0.00 | 0.00 | 0.00 | 91 | 1016.4 |
| 20260906094917 | 57 | 340 | 0.0 | 0.0 | 0.00 | 0.00 | 0.00 | 91 | 1016.4 |
| 20260906094759 | 57 | 341 | 0.0 | 0.0 | 0.00 | 0.00 | 0.00 | 91 | 1016.4 |
| 20260906094722 | 57 | 355 | 0.0 | 0.0 | 0.00 | 0.00 | 0.00 | 91 | 1016.4 |
| 20260906094643 | 57 | 360 | 0.0 | 0.0 | 0.00 | 0.00 | 0.00 | 91 | 1016.4 |
| 20260906094515 | 57 | 347 | 0.0 | 0.0 | 0.00 | 0.00 | 0.00 | 91 | 1016.4 |
| 20260906094433 | 57 | 349 | 0.0 | 0.0 | 0.00 | 0.00 | 0.00 | 91 | 1016.4 |
| 20260906094244 | 57 | 351 | 0.0 | 0.0 | 0.00 | 0.00 | 0.00 | 91 | 1016.4 |
| 20260906094158 | 57 | 355 | 0.0 | 0.0 | 0.00 | 0.00 | 0.00 | 91 | 1016.4 |
| 20260906094007 | 57 | 350 | 0.0 | 0.0 | 0.00 | 0.00 | 0.00 | 91 | 1016.3 |
| 20260906093930 | 57 | 337 | 0.0 | 0.0 | 0.00 | 0.00 | 0.00 | 91 | 1016.3 |
| 20260906093733 | 57 | 330 | 0.0 | 0.0 | 0.00 | 0.00 | 0.00 | 91 | 1016.2 |
| 20260906093654 | 57 | 12 | 0.0 | 0.0 | 0.00 | 0.00 | 0.00 | 91 | 1016.2 |
| 20260906093558 | 57 | 355 | 0.0 | 0.0 | 0.00 | 0.00 | 0.00 | 91 | 1016.3 |
| 20260906093440 | 57 | 12 | 0.0 | 0.0 | 0.00 | 0.00 | 0.00 | 91 | 1016.2 |
| 20260906093341 | 57 | 336 | 0.0 | 0.0 | 0.00 | 0.00 | 0.00 | 91 | 1016.2 |
| 20260906093307 | 57 | 306 | 0.0 | 0.0 | 0.00 | 0.00 | 0.00 | 91 | 1016.2 |
| 20260906093117 | 57 | 323 | 0.0 | 0.0 | 0.00 | 0.00 | 0.00 | 91 | 1016.2 |
| 20260906093038 | 57 | 355 | 0.0 | 0.0 | 0.00 | 0.00 | 0.00 | 91 | 1016.2 |
| 20260906092843 | 57 | 340 | 0.0 | 0.0 | 0.00 | 0.00 | 0.00 | 91 | 1016.2 |
| 20260906092806 | 57 | 323 | 0.0 | 0.0 | 0.00 | 0.00 | 0.00 | 91 | 1016.2 |
| 20260906092707 | 57 | 355 | 0.0 | 0.0 | 0.00 | 0.00 | 0.00 | 92 | 1016.1 |
| 20260906092630 | 57 | 343 | 0.0 | 0.0 | 0.00 | 0.00 | 0.00 | 92 | 1016.1 |
| 20260906092459 | 57 | 344 | 0.0 | 0.0 | 0.00 | 0.00 | 0.00 | 91 | 1016.1 |
| 20260906092415 | 57 | 332 | 0.0 | 0.0 | 0.00 | 0.00 | 0.00 | 91 | 1016.1 |
| 20260906092225 | 57 | 15 | 0.0 | 0.0 | 0.00 | 0.00 | 0.00 | 91 | 1016.1 |
| 20260906092140 | 57 | 331 | 0.0 | 0.0 | 0.00 | 0.00 | 0.00 | 91 | 1016.1 |
| 20260906092015 | 57 | 316 | 0.0 | 0.0 | 0.00 | 0.00 | 0.00 | 91 | 1016.1 |
| 20260906091935 | 57 | 328 | 0.0 | 0.0 | 0.00 | 0.00 | 0.00 | 91 | 1016.1 |
| 20260906091807 | 57 | 323 | 0.0 | 0.0 | 0.00 | 0.00 | 0.00 | 91 | 1016.0 |
| 20260906091722 | 57 | 360 | 0.0 | 0.0 | 0.00 | 0.00 | 0.00 | 92 | 1016.0 |
| 20260906091532 | 57 | 324 | 0.0 | 0.0 | 0.00 | 0.00 | 0.00 | 92 | 1016.0 |
| 20260906091448 | 57 | 318 | 0.0 | 0.0 | 0.00 | 0.00 | 0.00 | 91 | 1016.0 |
| 20260906091327 | 57 | 323 | 0.0 | 0.0 | 0.00 | 0.00 | 0.00 | 91 | 1016.0 |
| 20260906091227 | 57 | 5 | 0.0 | 0.0 | 0.00 | 0.00 | 0.00 | 91 | 1016.0 |
| 20260906091109 | 57 | 342 | 0.0 | 0.0 | 0.00 | 0.00 | 0.00 | 91 | 1016.0 |
| 20260906091030 | 57 | 319 | 0.0 | 0.0 | 0.00 | 0.00 | 0.00 | 91 | 1016.0 |
| 20260906090858 | 57 | 318 | 0.0 | 0.0 | 0.00 | 0.00 | 0.00 | 91 | 1016.0 |
| 20260906090752 | 57 | 324 | 0.0 | 0.0 | 0.00 | 0.00 | 0.00 | 91 | 1016.0 |
| 20260906090624 | 57 | 313 | 0.0 | 0.0 | 0.00 | 0.00 | 0.00 | 91 | 1016.0 |
| 20260906090524 | 57 | 332 | 0.0 | 0.0 | 0.00 | 0.00 | 0.00 | 91 | 1016.0 |
| 20260906090354 | 57 | 335 | 0.0 | 0.0 | 0.00 | 0.00 | 0.00 | 91 | 1016.0 |
| 20260906090247 | 57 | 355 | 0.0 | 0.0 | 0.00 | 0.00 | 0.00 | 91 | 1015.9 |
| 20260906090117 | 57 | 340 | 0.0 | 0.0 | 0.00 | 0.00 | 0.00 | 91 | 1015.9 |
| 20260906090038 | 57 | 350 | 0.0 | 0.0 | 0.00 | 0.00 | 0.00 | 91 | 1015.9 |
| 20260906085842 | 57 | 350 | 0.0 | 0.0 | 0.00 | 0.00 | 0.00 | 91 | 1015.9 |
| 20260906085743 | 57 | 348 | 0.0 | 0.0 | 0.00 | 0.00 | 0.00 | 91 | 1015.9 |
| 20260906085628 | 57 | 9 | 0.0 | 0.0 | 0.00 | 0.00 | 0.00 | 91 | 1015.9 |
| 20260906085522 | 57 | 355 | 0.0 | 0.0 | 0.00 | 0.00 | 0.00 | 91 | 1015.9 |
| 20260906085429 | 57 | 355 | 0.0 | 0.0 | 0.00 | 0.00 | 0.00 | 91 | 1015.8 |
| 20260906085344 | 57 | 330 | 0.0 | 0.0 | 0.00 | 0.00 | 0.00 | 91 | 1015.8 |
| 20260906085213 | 57 | 350 | 0.0 | 0.0 | 0.00 | 0.00 | 0.00 | 91 | 1015.9 |
| 20260906085134 | 57 | 336 | 0.0 | 0.0 | 0.00 | 0.00 | 0.00 | 91 | 1015.9 |
| 20260906085006 | 57 | 336 | 0.0 | 0.0 | 0.00 | 0.00 | 0.00 | 91 | 1015.8 |
| 20260906084839 | 57 | 5 | 0.0 | 0.0 | 0.00 | 0.00 | 0.00 | 91 | 1015.8 |
| 20260906084727 | 57 | 43 | 0.0 | 0.0 | 0.00 | 0.00 | 0.00 | 91 | 1015.8 |
| 20260906084648 | 57 | 355 | 0.0 | 0.0 | 0.00 | 0.00 | 0.00 | 91 | 1015.8 |
| 20260906084432 | 57 | 344 | 0.0 | 0.0 | 0.00 | 0.00 | 0.00 | 91 | 1015.8 |
| 20260906084336 | 57 | 355 | 0.0 | 0.0 | 0.00 | 0.00 | 0.00 | 91 | 1015.7 |
| 20260906084239 | 57 | 11 | 0.0 | 0.0 | 0.00 | 0.00 | 0.00 | 91 | 1015.8 |
| 20260906084158 | 57 | 22 | 0.0 | 0.0 | 0.00 | 0.00 | 0.00 | 91 | 1015.8 |
| 20260906084059 | 57 | 338 | 0.0 | 0.0 | 0.00 | 0.00 | 0.00 | 91 | 1015.8 |
| 20260906084003 | 57 | 338 | 0.0 | 0.0 | 0.00 | 0.00 | 0.00 | 91 | 1015.8 |
| 20260906083924 | 57 | 360 | 0.0 | 0.0 | 0.00 | 0.00 | 0.00 | 91 | 1015.8 |
| 20260906083726 | 57 | 355 | 0.0 | 0.0 | 0.00 | 0.00 | 0.00 | 91 | 1015.8 |
| 20260906083628 | 57 | 337 | 0.0 | 0.0 | 0.00 | 0.00 | 0.00 | 91 | 1015.8 |
| 20260906083533 | 57 | 355 | 0.0 | 0.0 | 0.00 | 0.00 | 0.00 | 91 | 1015.8 |
| 20260906083454 | 57 | 360 | 0.0 | 0.0 | 0.00 | 0.00 | 0.00 | 91 | 1015.8 |
| 20260906083358 | 57 | 355 | 0.0 | 0.0 | 0.00 | 0.00 | 0.00 | 91 | 1015.8 |
| 20260906083301 | 57 | 333 | 0.0 | 0.0 | 0.00 | 0.00 | 0.00 | 91 | 1015.8 |
| 20260906083224 | 57 | 355 | 0.0 | 0.0 | 0.00 | 0.00 | 0.00 | 91 | 1015.8 |
| 20260906083026 | 57 | 360 | 0.0 | 0.0 | 0.00 | 0.00 | 0.00 | 91 | 1015.8 |
| 20260906082927 | 57 | 35 | 0.0 | 0.0 | 0.00 | 0.00 | 0.00 | 91 | 1015.8 |
| 20260906082832 | 57 | 23 | 0.0 | 0.0 | 0.00 | 0.00 | 0.00 | 91 | 1015.8 |
| 20260906082734 | 57 | 351 | 0.0 | 0.0 | 0.00 | 0.00 | 0.00 | 91 | 1015.8 |
| 20260906082658 | 57 | 355 | 0.0 | 0.0 | 0.00 | 0.00 | 0.00 | 91 | 1015.8 |
| 20260906082525 | 57 | 19 | 0.0 | 0.0 | 0.00 | 0.00 | 0.00 | 91 | 1015.7 |
| 20260906082422 | 57 | 5 | 0.0 | 0.0 | 0.00 | 0.00 | 0.00 | 91 | 1015.8 |
| 20260906082354 | 57 | 343 | 0.0 | 0.0 | 0.00 | 0.00 | 0.00 | 91 | 1015.7 |
| 20260906082308 | 57 | 5 | 0.0 | 0.0 | 0.00 | 0.00 | 0.00 | 91 | 1015.7 |
| 20260906082209 | 57 | 5 | 0.0 | 0.0 | 0.00 | 0.00 | 0.00 | 91 | 1015.7 |
| 20260906082111 | 57 | 337 | 0.0 | 0.0 | 0.00 | 0.00 | 0.00 | 91 | 1015.7 |
| 20260906082016 | 57 | 36 | 0.0 | 0.0 | 0.00 | 0.00 | 0.00 | 91 | 1015.8 |
| 20260906081916 | 57 | 348 | 0.0 | 0.0 | 0.00 | 0.00 | 0.00 | 91 | 1015.7 |
| 20260906081746 | 57 | 11 | 0.0 | 0.0 | 0.00 | 0.00 | 0.00 | 91 | 1015.8 |
| 20260906081700 | 57 | 33 | 0.0 | 0.0 | 0.00 | 0.00 | 0.00 | 91 | 1015.7 |
| 20260906081530 | 57 | 328 | 0.0 | 0.0 | 0.00 | 0.00 | 0.00 | 91 | 1015.6 |
| 20260906081430 | 57 | 350 | 0.0 | 0.0 | 0.00 | 0.00 | 0.00 | 91 | 1015.6 |
| 20260906081304 | 57 | 350 | 0.0 | 0.0 | 0.00 | 0.00 | 0.00 | 91 | 1015.6 |
| 20260906081217 | 57 | 360 | 0.0 | 0.0 | 0.00 | 0.00 | 0.00 | 91 | 1015.6 |
| 20260906081056 | 57 | 325 | 0.0 | 0.0 | 0.00 | 0.00 | 0.00 | 91 | 1015.6 |
| 20260906081020 | 57 | 319 | 0.0 | 0.0 | 0.00 | 0.00 | 0.00 | 91 | 1015.6 |
| 20260906080933 | 57 | 5 | 0.0 | 0.0 | 0.00 | 0.00 | 0.00 | 91 | 1015.7 |
| 20260906080802 | 57 | 10 | 0.0 | 0.0 | 0.00 | 0.00 | 0.00 | 91 | 1015.7 |
| 20260906080724 | 57 | 5 | 0.0 | 0.0 | 0.00 | 0.00 | 0.00 | 91 | 1015.7 |
| 20260906080528 | 57 | 333 | 0.0 | 0.0 | 0.00 | 0.00 | 0.00 | 91 | 1015.6 |
| 20260906080451 | 57 | 349 | 0.0 | 0.0 | 0.00 | 0.00 | 0.00 | 91 | 1015.6 |
| 20260906080317 | 57 | 355 | 0.0 | 0.0 | 0.00 | 0.00 | 0.00 | 91 | 1015.6 |
| 20260906080245 | 57 | 350 | 0.0 | 0.0 | 0.00 | 0.00 | 0.00 | 91 | 1015.7 |
| 20260906080116 | 57 | 360 | 0.0 | 0.0 | 0.00 | 0.00 | 0.00 | 91 | 1015.6 |
| 20260906080017 | 57 | 360 | 0.0 | 0.0 | 0.00 | 0.00 | 0.00 | 91 | 1015.6 |
| 20260906075838 | 57 | 340 | 0.0 | 0.0 | 0.00 | 0.00 | 0.00 | 91 | 1015.6 |
| 20260906075740 | 57 | 350 | 0.0 | 0.0 | 0.00 | 0.00 | 0.00 | 91 | 1015.6 |
| 20260906075625 | 58 | 334 | 0.0 | 0.0 | 0.00 | 0.00 | 0.00 | 91 | 1015.6 |
| 20260906075547 | 58 | 341 | 0.0 | 0.0 | 0.00 | 0.00 | 0.00 | 91 | 1015.6 |
| 20260906075510 | 58 | 355 | 0.0 | 0.0 | 0.00 | 0.00 | 0.00 | 91 | 1015.5 |
| 20260906075354 | 58 | 351 | 0.0 | 0.0 | 0.00 | 0.00 | 0.00 | 91 | 1015.5 |
| 20260906075314 | 58 | 348 | 0.0 | 0.0 | 0.00 | 0.00 | 0.00 | 91 | 1015.5 |
| 20260906075145 | 58 | 343 | 0.0 | 0.0 | 0.00 | 0.00 | 0.00 | 91 | 1015.6 |
| 20260906075104 | 58 | 341 | 0.0 | 0.0 | 0.00 | 0.00 | 0.00 | 91 | 1015.5 |
| 20260906074924 | 58 | 360 | 0.0 | 0.0 | 0.00 | 0.00 | 0.00 | 91 | 1015.6 |
| 20260906074839 | 58 | 329 | 0.0 | 0.0 | 0.00 | 0.00 | 0.00 | 91 | 1015.5 |
| 20260906074707 | 58 | 355 | 0.0 | 0.0 | 0.00 | 0.00 | 0.00 | 91 | 1015.5 |
| 20260906074630 | 58 | 360 | 0.0 | 0.0 | 0.00 | 0.00 | 0.00 | 91 | 1015.5 |
| 20260906074452 | 58 | 355 | 0.0 | 0.0 | 0.00 | 0.00 | 0.00 | 91 | 1015.5 |
| 20260906074415 | 58 | 347 | 0.0 | 0.0 | 0.00 | 0.00 | 0.00 | 91 | 1015.5 |
| 20260906074154 | 58 | 340 | 0.0 | 0.0 | 0.00 | 0.00 | 0.00 | 91 | 1015.5 |
| 20260906074117 | 58 | 344 | 0.0 | 0.0 | 0.00 | 0.00 | 0.00 | 91 | 1015.5 |
| 20260906073940 | 58 | 325 | 0.0 | 0.0 | 0.00 | 0.00 | 0.00 | 91 | 1015.5 |
| 20260906073840 | 58 | 5 | 0.0 | 0.0 | 0.00 | 0.00 | 0.00 | 91 | 1015.5 |
| 20260906073747 | 58 | 347 | 0.0 | 0.0 | 0.00 | 0.00 | 0.00 | 91 | 1015.5 |
| 20260906073646 | 58 | 355 | 0.0 | 0.0 | 0.00 | 0.00 | 0.00 | 91 | 1015.4 |
| 20260906073518 | 58 | 325 | 0.0 | 0.0 | 0.00 | 0.00 | 0.00 | 91 | 1015.4 |
| 20260906073432 | 58 | 360 | 0.0 | 0.0 | 0.00 | 0.00 | 0.00 | 91 | 1015.4 |
| 20260906073250 | 58 | 355 | 0.0 | 0.0 | 0.00 | 0.00 | 0.00 | 92 | 1015.4 |
| 20260906073100 | 58 | 333 | 0.0 | 0.0 | 0.00 | 0.00 | 0.00 | 92 | 1015.4 |
| 20260906073014 | 58 | 333 | 0.0 | 0.0 | 0.00 | 0.00 | 0.00 | 92 | 1015.4 |
| 20260906072826 | 58 | 350 | 0.0 | 0.0 | 0.00 | 0.00 | 0.00 | 92 | 1015.4 |
| 20260906072740 | 58 | 350 | 0.0 | 0.0 | 0.00 | 0.00 | 0.00 | 92 | 1015.4 |
| 20260906072611 | 58 | 355 | 0.0 | 0.0 | 0.00 | 0.00 | 0.00 | 92 | 1015.4 |
| 20260906072511 | 58 | 360 | 0.0 | 0.0 | 0.00 | 0.00 | 0.00 | 92 | 1015.4 |
| 20260906072411 | 58 | 360 | 0.0 | 0.0 | 0.00 | 0.00 | 0.00 | 92 | 1015.4 |
| 20260906072320 | 58 | 360 | 0.0 | 0.0 | 0.00 | 0.00 | 0.00 | 92 | 1015.4 |
| 20260906072241 | 58 | 360 | 0.0 | 0.0 | 0.00 | 0.00 | 0.00 | 92 | 1015.4 |
| 20260906072113 | 58 | 360 | 0.0 | 0.0 | 0.00 | 0.00 | 0.00 | 92 | 1015.4 |
| 20260906072027 | 58 | 360 | 0.0 | 0.0 | 0.00 | 0.00 | 0.00 | 92 | 1015.4 |
| 20260906071857 | 58 | 18 | 0.0 | 0.0 | 0.00 | 0.00 | 0.00 | 92 | 1015.3 |
| 20260906071820 | 58 | 10 | 0.0 | 0.0 | 0.00 | 0.00 | 0.00 | 92 | 1015.3 |
| 20260906071623 | 58 | 355 | 0.0 | 0.0 | 0.00 | 0.00 | 0.00 | 92 | 1015.3 |
| 20260906071545 | 58 | 355 | 0.0 | 0.0 | 0.00 | 0.00 | 0.00 | 92 | 1015.3 |
| 20260906071430 | 58 | 336 | 0.0 | 0.0 | 0.00 | 0.00 | 0.00 | 91 | 1015.3 |
| 20260906071353 | 58 | 350 | 0.0 | 0.0 | 0.00 | 0.00 | 0.00 | 91 | 1015.3 |
| 20260906071254 | 58 | 350 | 0.0 | 0.0 | 0.00 | 0.00 | 0.00 | 91 | 1015.3 |
| 20260906071123 | 58 | 360 | 0.0 | 0.0 | 0.00 | 0.00 | 0.00 | 91 | 1015.2 |
| 20260906071026 | 58 | 351 | 0.0 | 0.0 | 0.00 | 0.00 | 0.00 | 91 | 1015.2 |
| 20260906070947 | 58 | 351 | 0.0 | 0.0 | 0.00 | 0.00 | 0.00 | 91 | 1015.3 |
| 20260906070841 | 58 | 11 | 0.0 | 0.0 | 0.00 | 0.00 | 0.00 | 91 | 1015.3 |
| 20260906070724 | 58 | 355 | 0.0 | 0.0 | 0.00 | 0.00 | 0.00 | 91 | 1015.2 |
| 20260906070645 | 58 | 338 | 0.0 | 0.0 | 0.00 | 0.00 | 0.00 | 91 | 1015.2 |
| 20260906070428 | 58 | 347 | 0.0 | 0.0 | 0.00 | 0.00 | 0.00 | 91 | 1015.3 |
| 20260906070333 | 58 | 329 | 0.0 | 0.0 | 0.00 | 0.00 | 0.00 | 91 | 1015.3 |
| 20260906070227 | 58 | 327 | 0.0 | 0.0 | 0.00 | 0.00 | 0.00 | 91 | 1015.3 |
| 20260906070148 | 58 | 340 | 0.0 | 0.0 | 0.00 | 0.00 | 0.00 | 91 | 1015.3 |
| 20260906070043 | 58 | 346 | 0.0 | 0.0 | 0.00 | 0.00 | 0.00 | 91 | 1015.2 |
| 20260906070004 | 58 | 9 | 0.0 | 0.0 | 0.00 | 0.00 | 0.00 | 90 | 1015.2 |
| 20260906065825 | 58 | 344 | 0.0 | 0.0 | 0.00 | 0.00 | 0.00 | 90 | 1015.2 |
| 20260906065747 | 58 | 335 | 0.0 | 0.0 | 0.00 | 0.00 | 0.00 | 90 | 1015.2 |
| 20260906065616 | 58 | 340 | 0.0 | 0.0 | 0.00 | 0.00 | 0.00 | 90 | 1015.2 |
| 20260906065531 | 58 | 340 | 0.0 | 0.0 | 0.00 | 0.00 | 0.00 | 90 | 1015.2 |
| 20260906065401 | 58 | 344 | 0.0 | 0.0 | 0.00 | 0.00 | 0.00 | 90 | 1015.2 |
| 20260906065326 | 58 | 347 | 0.0 | 0.0 | 0.00 | 0.00 | 0.00 | 90 | 1015.2 |
| 20260906065131 | 58 | 5 | 0.0 | 0.0 | 0.00 | 0.00 | 0.00 | 90 | 1015.2 |
| 20260906065032 | 58 | 360 | 0.0 | 0.0 | 0.00 | 0.00 | 0.00 | 90 | 1015.2 |
| 20260906064935 | 58 | 355 | 0.0 | 0.0 | 0.00 | 0.00 | 0.00 | 90 | 1015.1 |
| 20260906064855 | 58 | 355 | 0.0 | 0.0 | 0.00 | 0.00 | 0.00 | 90 | 1015.1 |
| 20260906064756 | 59 | 355 | 0.0 | 0.0 | 0.00 | 0.00 | 0.00 | 90 | 1015.1 |
| 20260906064700 | 59 | 351 | 0.0 | 0.0 | 0.00 | 0.00 | 0.00 | 90 | 1015.1 |
| 20260906064541 | 58 | 5 | 0.0 | 0.0 | 0.00 | 0.00 | 0.00 | 90 | 1015.1 |
| 20260906064444 | 59 | 20 | 0.0 | 0.0 | 0.00 | 0.00 | 0.00 | 90 | 1015.2 |
| 20260906064344 | 59 | 355 | 0.0 | 0.0 | 0.00 | 0.00 | 0.00 | 90 | 1015.1 |
| 20260906064128 | 59 | 355 | 0.0 | 0.0 | 0.00 | 0.00 | 0.00 | 90 | 1015.2 |
| 20260906064020 | 59 | 355 | 0.0 | 0.0 | 0.00 | 0.00 | 0.00 | 90 | 1015.2 |
| 20260906063832 | 59 | 344 | 0.0 | 0.0 | 0.00 | 0.00 | 0.00 | 90 | 1015.2 |
| 20260906063746 | 59 | 355 | 0.0 | 0.0 | 0.00 | 0.00 | 0.00 | 90 | 1015.2 |
| 20260906063555 | 59 | 17 | 0.0 | 0.0 | 0.00 | 0.00 | 0.00 | 90 | 1015.1 |
| 20260906063516 | 59 | 332 | 0.0 | 0.0 | 0.00 | 0.00 | 0.00 | 91 | 1015.2 |
| 20260906063348 | 59 | 26 | 0.0 | 0.0 | 0.00 | 0.00 | 0.00 | 91 | 1015.2 |
| 20260906063240 | 59 | 26 | 0.0 | 0.0 | 0.00 | 0.00 | 0.00 | 91 | 1015.1 |
| 20260906063124 | 59 | 26 | 0.0 | 0.0 | 0.00 | 0.00 | 0.00 | 91 | 1015.1 |
| 20260906063045 | 59 | 26 | 0.0 | 0.0 | 0.00 | 0.00 | 0.00 | 91 | 1015.1 |
| 20260906062832 | 59 | 26 | 0.0 | 0.0 | 0.00 | 0.00 | 0.00 | 91 | 1015.1 |
| 20260906062734 | 59 | 26 | 0.0 | 0.0 | 0.00 | 0.00 | 0.00 | 91 | 1015.1 |
| 20260906062638 | 59 | 26 | 0.0 | 0.0 | 0.00 | 0.00 | 0.00 | 91 | 1015.1 |
| 20260906062601 | 59 | 26 | 0.0 | 0.0 | 0.00 | 0.00 | 0.00 | 91 | 1015.1 |
| 20260906062522 | 59 | 26 | 0.0 | 0.0 | 0.00 | 0.00 | 0.00 | 91 | 1015.1 |
| 20260906062404 | 59 | 26 | 0.0 | 0.0 | 0.00 | 0.00 | 0.00 | 91 | 1015.0 |
| 20260906062325 | 59 | 26 | 0.0 | 0.0 | 0.00 | 0.00 | 0.00 | 91 | 1015.0 |
| 20260906062130 | 59 | 5 | 0.0 | 0.0 | 0.00 | 0.00 | 0.00 | 91 | 1015.0 |
| 20260906062032 | 59 | 5 | 0.0 | 0.0 | 0.00 | 0.00 | 0.00 | 91 | 1015.0 |
| 20260906061939 | 59 | 5 | 0.0 | 0.0 | 0.00 | 0.00 | 0.00 | 91 | 1015.0 |
| 20260906061900 | 59 | 5 | 0.0 | 0.0 | 0.00 | 0.00 | 0.00 | 91 | 1015.0 |
| 20260906061718 | 59 | 355 | 0.0 | 0.0 | 0.00 | 0.00 | 0.00 | 91 | 1015.0 |
| 20260906061529 | 59 | 360 | 0.0 | 0.0 | 0.00 | 0.00 | 0.00 | 91 | 1015.0 |
| 20260906061423 | 59 | 360 | 0.0 | 0.0 | 0.00 | 0.00 | 0.00 | 91 | 1015.0 |
| 20260906061234 | 59 | 360 | 0.0 | 0.0 | 0.00 | 0.00 | 0.00 | 91 | 1015.0 |
| 20260906061149 | 59 | 360 | 0.0 | 0.0 | 0.00 | 0.00 | 0.00 | 91 | 1015.0 |
| 20260906060938 | 59 | 26 | 0.0 | 0.0 | 0.00 | 0.00 | 0.00 | 91 | 1015.0 |
| 20260906060835 | 59 | 23 | 0.0 | 0.0 | 0.00 | 0.00 | 0.00 | 91 | 1015.0 |
| 20260906060724 | 59 | 17 | 0.0 | 0.0 | 0.00 | 0.00 | 0.00 | 91 | 1014.9 |
| 20260906060645 | 59 | 17 | 0.0 | 0.0 | 0.00 | 0.00 | 0.00 | 91 | 1014.9 |
| 20260906060516 | 59 | 348 | 0.0 | 0.0 | 0.00 | 0.00 | 0.00 | 91 | 1014.9 |
| 20260906060430 | 59 | 348 | 0.0 | 0.0 | 0.00 | 0.00 | 0.00 | 91 | 1014.9 |
| 20260906060301 | 59 | 348 | 0.0 | 0.0 | 0.00 | 0.00 | 0.00 | 91 | 1015.0 |
| 20260906060223 | 59 | 348 | 0.0 | 0.0 | 0.00 | 0.00 | 0.00 | 91 | 1015.0 |
| 20260906060025 | 59 | 327 | 0.0 | 0.0 | 0.00 | 0.00 | 0.00 | 92 | 1015.0 |
| 20260906055929 | 59 | 32 | 0.0 | 0.0 | 0.00 | 0.00 | 0.00 | 92 | 1015.0 |
| 20260906055831 | 59 | 32 | 0.0 | 0.0 | 0.00 | 0.00 | 0.00 | 92 | 1015.0 |
| 20260906055731 | 59 | 32 | 0.0 | 0.0 | 0.00 | 0.00 | 0.00 | 92 | 1015.0 |
| 20260906055601 | 59 | 42 | 0.0 | 0.0 | 0.00 | 0.00 | 0.00 | 92 | 1015.0 |
| 20260906055521 | 59 | 42 | 0.0 | 0.0 | 0.00 | 0.00 | 0.00 | 92 | 1015.0 |
| 20260906055350 | 59 | 360 | 0.0 | 0.0 | 0.00 | 0.00 | 0.00 | 92 | 1015.0 |
| 20260906055311 | 59 | 360 | 0.0 | 0.0 | 0.00 | 0.00 | 0.00 | 92 | 1015.0 |
| 20260906055155 | 59 | 336 | 0.0 | 0.0 | 0.00 | 0.00 | 0.00 | 92 | 1014.9 |
| 20260906055117 | 59 | 48 | 0.0 | 0.0 | 0.00 | 0.00 | 0.00 | 92 | 1015.0 |
| 20260906054946 | 59 | 48 | 0.0 | 0.0 | 0.00 | 0.00 | 0.00 | 92 | 1015.0 |
| 20260906054902 | 59 | 48 | 0.0 | 0.0 | 0.00 | 0.00 | 0.00 | 92 | 1014.9 |
| 20260906054709 | 59 | 29 | 0.0 | 0.0 | 0.00 | 0.00 | 0.00 | 92 | 1014.9 |
| 20260906054630 | 59 | 29 | 0.0 | 0.0 | 0.00 | 0.00 | 0.00 | 92 | 1014.9 |
| 20260906054434 | 59 | 29 | 0.0 | 0.0 | 0.00 | 0.00 | 0.00 | 92 | 1014.9 |
| 20260906054356 | 59 | 29 | 0.0 | 0.0 | 0.00 | 0.00 | 0.00 | 92 | 1014.9 |
| 20260906054244 | 59 | 29 | 0.0 | 0.0 | 0.00 | 0.00 | 0.00 | 93 | 1014.9 |
| 20260906054205 | 59 | 29 | 0.0 | 0.0 | 0.00 | 0.00 | 0.00 | 93 | 1014.9 |
| 20260906054105 | 59 | 5 | 0.0 | 0.0 | 0.00 | 0.00 | 0.00 | 93 | 1014.9 |
| 20260906054009 | 59 | 5 | 0.0 | 0.0 | 0.00 | 0.00 | 0.00 | 93 | 1014.9 |
| 20260906053930 | 59 | 5 | 0.0 | 0.0 | 0.00 | 0.00 | 0.00 | 93 | 1014.9 |
| 20260906053738 | 59 | 355 | 0.0 | 0.0 | 0.00 | 0.00 | 0.00 | 93 | 1014.8 |
| 20260906053621 | 59 | 355 | 0.0 | 0.0 | 0.00 | 0.00 | 0.00 | 93 | 1014.8 |
| 20260906053543 | 59 | 355 | 0.0 | 0.0 | 0.00 | 0.00 | 0.00 | 93 | 1014.9 |
| 20260906053413 | 59 | 355 | 0.0 | 0.0 | 0.00 | 0.00 | 0.00 | 93 | 1014.9 |
| 20260906053306 | 59 | 355 | 0.0 | 0.0 | 0.00 | 0.00 | 0.00 | 93 | 1014.8 |
| 20260906053136 | 59 | 350 | 0.0 | 0.0 | 0.00 | 0.00 | 0.00 | 93 | 1014.8 |
| 20260906053034 | 59 | 15 | 0.0 | 0.0 | 0.00 | 0.00 | 0.00 | 93 | 1014.8 |
| 20260906052903 | 59 | 339 | 0.0 | 0.0 | 0.00 | 0.00 | 0.00 | 93 | 1014.8 |
| 20260906052828 | 59 | 339 | 0.0 | 0.0 | 0.00 | 0.00 | 0.00 | 94 | 1014.8 |
| 20260906052640 | 59 | 339 | 0.0 | 0.0 | 0.00 | 0.00 | 0.00 | 93 | 1014.8 |
| 20260906052535 | 59 | 339 | 0.0 | 0.0 | 0.00 | 0.00 | 0.00 | 94 | 1014.8 |
| 20260906052458 | 59 | 339 | 0.0 | 0.0 | 0.00 | 0.00 | 0.00 | 93 | 1014.8 |
| 20260906052323 | 59 | 339 | 0.0 | 0.0 | 0.00 | 0.00 | 0.00 | 93 | 1014.9 |
| 20260906052239 | 59 | 339 | 0.0 | 0.0 | 0.00 | 0.00 | 0.00 | 93 | 1014.9 |
| 20260906052108 | 59 | 338 | 0.0 | 0.0 | 0.00 | 0.00 | 0.00 | 93 | 1014.9 |
| 20260906052029 | 59 | 338 | 0.0 | 0.0 | 0.00 | 0.00 | 0.00 | 93 | 1014.9 |
| 20260906051835 | 59 | 338 | 0.0 | 0.0 | 0.00 | 0.00 | 0.00 | 93 | 1014.8 |
| 20260906051756 | 59 | 338 | 0.0 | 0.0 | 0.00 | 0.00 | 0.00 | 93 | 1014.8 |
| 20260906051700 | 59 | 338 | 0.0 | 0.0 | 0.00 | 0.00 | 0.00 | 93 | 1014.8 |
| 20260906051621 | 59 | 338 | 0.0 | 0.0 | 0.00 | 0.00 | 0.00 | 93 | 1014.8 |
| 20260906051452 | 59 | 338 | 0.0 | 0.0 | 0.00 | 0.00 | 0.00 | 93 | 1014.8 |
| 20260906051418 | 59 | 338 | 0.0 | 0.0 | 0.00 | 0.00 | 0.00 | 93 | 1014.8 |
| 20260906051228 | 59 | 328 | 0.0 | 0.0 | 0.00 | 0.00 | 0.00 | 93 | 1014.7 |
| 20260906051142 | 59 | 327 | 0.0 | 0.0 | 0.00 | 0.00 | 0.00 | 93 | 1014.8 |
| 20260906051013 | 59 | 328 | 0.0 | 0.0 | 0.00 | 0.00 | 0.00 | 93 | 1014.7 |
| 20260906050935 | 59 | 328 | 0.0 | 0.0 | 0.00 | 0.00 | 0.00 | 93 | 1014.7 |
| 20260906050805 | 59 | 328 | 0.0 | 0.0 | 0.00 | 0.00 | 0.00 | 93 | 1014.8 |
| 20260906050718 | 59 | 328 | 0.0 | 0.0 | 0.00 | 0.00 | 0.00 | 93 | 1014.7 |
| 20260906050534 | 59 | 328 | 0.0 | 0.0 | 0.00 | 0.00 | 0.00 | 93 | 1014.7 |
| 20260906050449 | 59 | 328 | 0.0 | 0.0 | 0.00 | 0.00 | 0.00 | 93 | 1014.8 |
| 20260906050348 | 59 | 328 | 0.0 | 0.0 | 0.00 | 0.00 | 0.00 | 93 | 1014.7 |
| 20260906050311 | 59 | 328 | 0.0 | 0.0 | 0.00 | 0.00 | 0.00 | 92 | 1014.7 |
| 20260906050226 | 59 | 328 | 0.0 | 0.0 | 0.00 | 0.00 | 0.00 | 92 | 1014.7 |
| 20260906050035 | 59 | 328 | 0.0 | 0.0 | 0.00 | 0.00 | 0.00 | 93 | 1014.7 |
| 20260906045951 | 59 | 328 | 0.0 | 0.0 | 0.00 | 0.00 | 0.00 | 93 | 1014.6 |
| 20260906045821 | 59 | 328 | 0.0 | 0.0 | 0.00 | 0.00 | 0.00 | 93 | 1014.6 |
| 20260906045721 | 59 | 328 | 0.0 | 0.0 | 0.00 | 0.00 | 0.00 | 93 | 1014.6 |
| 20260906045525 | 60 | 328 | 0.0 | 0.0 | 0.00 | 0.00 | 0.00 | 92 | 1014.6 |
| 20260906045432 | 60 | 328 | 0.0 | 0.0 | 0.00 | 0.00 | 0.00 | 92 | 1014.6 |
| 20260906045335 | 60 | 328 | 0.0 | 0.0 | 0.00 | 0.00 | 0.00 | 93 | 1014.6 |
| 20260906045235 | 60 | 328 | 0.0 | 0.0 | 0.00 | 0.00 | 0.00 | 93 | 1014.6 |
| 20260906045118 | 60 | 328 | 0.0 | 0.0 | 0.00 | 0.00 | 0.00 | 93 | 1014.6 |
| 20260906045031 | 60 | 327 | 0.0 | 0.0 | 0.00 | 0.00 | 0.00 | 93 | 1014.6 |
| 20260906044842 | 60 | 328 | 0.0 | 0.0 | 0.00 | 0.00 | 0.00 | 93 | 1014.5 |
| 20260906044757 | 60 | 328 | 0.0 | 0.0 | 0.00 | 0.00 | 0.00 | 93 | 1014.5 |
| 20260906044638 | 60 | 328 | 0.0 | 0.0 | 0.00 | 0.00 | 0.00 | 93 | 1014.5 |
| 20260906044551 | 60 | 328 | 0.0 | 0.0 | 0.00 | 0.00 | 0.00 | 93 | 1014.5 |
| 20260906044433 | 60 | 328 | 0.0 | 0.0 | 0.00 | 0.00 | 0.00 | 93 | 1014.5 |
| 20260906044336 | 60 | 328 | 0.0 | 0.0 | 0.00 | 0.00 | 0.00 | 93 | 1014.5 |
| 20260906044147 | 60 | 328 | 0.0 | 0.0 | 0.00 | 0.00 | 0.00 | 93 | 1014.5 |
| 20260906044040 | 60 | 327 | 0.0 | 0.0 | 0.00 | 0.00 | 0.00 | 93 | 1014.5 |
| 20260906043925 | 60 | 327 | 0.0 | 0.0 | 0.00 | 0.00 | 0.00 | 93 | 1014.5 |
| 20260906043848 | 60 | 328 | 0.0 | 0.0 | 0.00 | 0.00 | 0.00 | 93 | 1014.4 |
| 20260906043718 | 60 | 328 | 0.0 | 0.0 | 0.00 | 0.00 | 0.00 | 93 | 1014.5 |
| 20260906043632 | 60 | 327 | 0.0 | 0.0 | 0.00 | 0.00 | 0.00 | 93 | 1014.5 |
| 20260906043443 | 60 | 327 | 0.0 | 0.0 | 0.00 | 0.00 | 0.00 | 93 | 1014.5 |
| 20260906043337 | 60 | 328 | 0.0 | 0.0 | 0.00 | 0.00 | 0.00 | 93 | 1014.4 |
| 20260906043225 | 60 | 328 | 0.0 | 0.0 | 0.00 | 0.00 | 0.00 | 93 | 1014.4 |
| 20260906043146 | 60 | 327 | 0.0 | 0.0 | 0.00 | 0.00 | 0.00 | 93 | 1014.4 |
| 20260906043057 | 60 | 327 | 0.0 | 0.0 | 0.00 | 0.00 | 0.00 | 93 | 1014.4 |
| 20260906043011 | 60 | 325 | 0.0 | 0.0 | 0.00 | 0.00 | 0.00 | 93 | 1014.4 |
| 20260906042931 | 60 | 322 | 0.0 | 0.0 | 0.00 | 0.00 | 0.00 | 93 | 1014.4 |
| 20260906042803 | 61 | 322 | 0.0 | 0.0 | 0.00 | 0.00 | 0.00 | 93 | 1014.4 |
| 20260906042717 | 61 | 322 | 0.0 | 0.0 | 0.00 | 0.00 | 0.00 | 93 | 1014.4 |
| 20260906042547 | 61 | 322 | 0.0 | 0.0 | 0.00 | 0.00 | 0.00 | 93 | 1014.4 |
| 20260906042509 | 61 | 322 | 0.0 | 0.0 | 0.00 | 0.00 | 0.00 | 93 | 1014.4 |
| 20260906042311 | 61 | 322 | 0.0 | 0.0 | 0.00 | 0.00 | 0.00 | 93 | 1014.4 |
| 20260906042232 | 61 | 322 | 0.0 | 0.0 | 0.00 | 0.00 | 0.00 | 93 | 1014.4 |
| 20260906042048 | 61 | 322 | 0.0 | 0.0 | 0.00 | 0.00 | 0.00 | 93 | 1014.4 |
| 20260906041942 | 61 | 322 | 0.0 | 0.0 | 0.00 | 0.00 | 0.00 | 93 | 1014.4 |
| 20260906041826 | 61 | 322 | 0.0 | 0.0 | 0.00 | 0.00 | 0.00 | 93 | 1014.4 |
| 20260906041747 | 61 | 322 | 0.0 | 0.0 | 0.00 | 0.00 | 0.00 | 93 | 1014.4 |
| 20260906041709 | 61 | 322 | 0.0 | 0.0 | 0.00 | 0.00 | 0.00 | 93 | 1014.3 |
| 20260906041612 | 61 | 322 | 0.0 | 0.0 | 0.00 | 0.00 | 0.00 | 93 | 1014.3 |
| 20260906041534 | 61 | 322 | 0.0 | 0.0 | 0.00 | 0.00 | 0.00 | 93 | 1014.3 |
| 20260906041405 | 61 | 322 | 0.0 | 0.0 | 0.00 | 0.00 | 0.00 | 93 | 1014.3 |
| 20260906041319 | 61 | 322 | 0.0 | 0.0 | 0.00 | 0.00 | 0.00 | 93 | 1014.3 |
| 20260906041130 | 61 | 322 | 0.0 | 0.0 | 0.00 | 0.00 | 0.00 | 93 | 1014.4 |
| 20260906041049 | 61 | 322 | 0.0 | 0.9 | 0.00 | 0.00 | 0.00 | 93 | 1014.4 |
| 20260906040919 | 61 | 322 | 0.0 | 1.7 | 0.00 | 0.00 | 0.00 | 93 | 1014.3 |
| 20260906040819 | 61 | 322 | 0.0 | 1.7 | 0.00 | 0.00 | 0.00 | 93 | 1014.3 |
| 20260906040649 | 61 | 322 | 0.0 | 1.7 | 0.00 | 0.00 | 0.00 | 93 | 1014.2 |
| 20260906040524 | 61 | 322 | 0.0 | 1.7 | 0.00 | 0.00 | 0.00 | 93 | 1014.2 |
| 20260906040428 | 61 | 322 | 0.0 | 1.7 | 0.00 | 0.00 | 0.00 | 93 | 1014.2 |
| 20260906040349 | 61 | 322 | 0.0 | 1.7 | 0.00 | 0.00 | 0.00 | 93 | 1014.2 |
| 20260906040249 | 61 | 207 | 0.0 | 1.7 | 0.00 | 0.00 | 0.00 | 93 | 1014.2 |
| 20260906040154 | 61 | 207 | 0.0 | 1.7 | 0.00 | 0.00 | 0.00 | 93 | 1014.1 |
| 20260906040115 | 61 | 240 | 0.0 | 1.7 | 0.00 | 0.00 | 0.00 | 93 | 1014.1 |
| 20260906035923 | 61 | 240 | 0.9 | 1.7 | 0.00 | 0.00 | 0.00 | 93 | 1014.1 |
| 20260906035841 | 61 | 286 | 0.9 | 1.7 | 0.00 | 0.00 | 0.00 | 93 | 1014.1 |
| 20260906035710 | 61 | 340 | 0.0 | 2.6 | 0.00 | 0.00 | 0.00 | 93 | 1014.1 |
| 20260906035631 | 61 | 340 | 0.0 | 2.6 | 0.00 | 0.00 | 0.00 | 93 | 1014.1 |
| 20260906035437 | 61 | 340 | 0.0 | 2.6 | 0.00 | 0.00 | 0.00 | 94 | 1014.2 |
| 20260906035341 | 61 | 340 | 0.0 | 2.6 | 0.00 | 0.00 | 0.00 | 94 | 1014.2 |
| 20260906035222 | 61 | 340 | 0.9 | 2.6 | 0.00 | 0.00 | 0.00 | 93 | 1014.3 |
| 20260906035146 | 61 | 340 | 0.9 | 2.6 | 0.00 | 0.00 | 0.00 | 93 | 1014.3 |
| 20260906035017 | 61 | 340 | 0.9 | 2.6 | 0.00 | 0.00 | 0.00 | 93 | 1014.4 |
| 20260906034938 | 61 | 340 | 1.7 | 2.6 | 0.00 | 0.00 | 0.00 | 93 | 1014.4 |
| 20260906034809 | 61 | 340 | 0.9 | 2.6 | 0.00 | 0.00 | 0.00 | 93 | 1014.4 |
| 20260906034728 | 61 | 340 | 0.9 | 1.7 | 0.00 | 0.00 | 0.00 | 93 | 1014.4 |
| 20260906034538 | 61 | 340 | 0.9 | 1.7 | 0.00 | 0.00 | 0.00 | 93 | 1014.4 |
| 20260906034436 | 61 | 340 | 0.0 | 1.7 | 0.00 | 0.00 | 0.00 | 93 | 1014.4 |
| 20260906034331 | 61 | 340 | 0.0 | 1.7 | 0.00 | 0.00 | 0.00 | 93 | 1014.4 |
| 20260906034251 | 61 | 340 | 0.0 | 1.7 | 0.00 | 0.00 | 0.00 | 93 | 1014.4 |
| 20260906034101 | 61 | 340 | 0.0 | 1.7 | 0.00 | 0.00 | 0.00 | 93 | 1014.3 |
| 20260906034016 | 61 | 340 | 0.0 | 1.7 | 0.00 | 0.00 | 0.00 | 93 | 1014.4 |
| 20260906033827 | 62 | 340 | 0.9 | 1.7 | 0.00 | 0.00 | 0.00 | 93 | 1014.3 |
| 20260906033727 | 62 | 340 | 0.0 | 0.9 | 0.00 | 0.00 | 0.00 | 93 | 1014.3 |
| 20260906033649 | 62 | 340 | 0.0 | 0.9 | 0.00 | 0.00 | 0.00 | 93 | 1014.3 |
| 20260906033602 | 62 | 340 | 0.0 | 0.9 | 0.00 | 0.00 | 0.00 | 93 | 1014.3 |
| 20260906033444 | 62 | 340 | 0.0 | 0.9 | 0.00 | 0.00 | 0.00 | 93 | 1014.3 |
| 20260906033327 | 62 | 340 | 0.0 | 0.9 | 0.00 | 0.00 | 0.00 | 93 | 1014.2 |
| 20260906033250 | 62 | 340 | 0.0 | 0.9 | 0.00 | 0.00 | 0.00 | 93 | 1014.2 |
| 20260906033210 | 62 | 340 | 0.0 | 0.9 | 0.00 | 0.00 | 0.00 | 93 | 1014.2 |
| 20260906033052 | 62 | 340 | 0.0 | 0.9 | 0.00 | 0.00 | 0.00 | 93 | 1014.2 |
| 20260906033015 | 62 | 340 | 0.0 | 0.9 | 0.00 | 0.00 | 0.00 | 93 | 1014.2 |
| 20260906032726 | 62 | 340 | 0.0 | 0.9 | 0.00 | 0.00 | 0.00 | 93 | 1014.2 |
| 20260906032631 | 62 | 340 | 0.0 | 0.9 | 0.00 | 0.00 | 0.00 | 93 | 1014.2 |
| 20260906032534 | 62 | 340 | 0.0 | 0.0 | 0.00 | 0.00 | 0.00 | 93 | 1014.3 |
| 20260906032456 | 62 | 340 | 0.0 | 0.0 | 0.00 | 0.00 | 0.00 | 93 | 1014.3 |
| 20260906032419 | 62 | 340 | 0.0 | 0.0 | 0.00 | 0.00 | 0.00 | 93 | 1014.3 |
| 20260906032305 | 62 | 340 | 0.0 | 0.0 | 0.00 | 0.00 | 0.00 | 93 | 1014.3 |
| 20260906032223 | 62 | 340 | 0.0 | 0.0 | 0.00 | 0.00 | 0.00 | 93 | 1014.3 |
| 20260906032052 | 62 | 340 | 0.0 | 0.0 | 0.00 | 0.00 | 0.00 | 93 | 1014.3 |
| 20260906032006 | 62 | 340 | 0.0 | 0.0 | 0.00 | 0.00 | 0.00 | 93 | 1014.3 |
| 20260906031835 | 62 | 340 | 0.0 | 0.0 | 0.00 | 0.00 | 0.00 | 93 | 1014.3 |
| 20260906031734 | 62 | 340 | 0.0 | 0.0 | 0.00 | 0.00 | 0.00 | 93 | 1014.3 |
| 20260906031607 | 62 | 340 | 0.0 | 0.0 | 0.00 | 0.00 | 0.00 | 93 | 1014.3 |
| 20260906031520 | 62 | 340 | 0.0 | 0.0 | 0.00 | 0.00 | 0.00 | 93 | 1014.3 |
| 20260906031355 | 62 | 340 | 0.0 | 0.0 | 0.00 | 0.00 | 0.00 | 93 | 1014.3 |
| 20260906031316 | 62 | 340 | 0.0 | 0.0 | 0.00 | 0.00 | 0.00 | 93 | 1014.3 |
| 20260906031139 | 62 | 340 | 0.0 | 0.0 | 0.00 | 0.00 | 0.00 | 93 | 1014.3 |
| 20260906031040 | 62 | 340 | 0.0 | 0.0 | 0.00 | 0.00 | 0.00 | 93 | 1014.3 |
| 20260906030943 | 62 | 340 | 0.0 | 0.0 | 0.00 | 0.00 | 0.00 | 93 | 1014.3 |
| 20260906030844 | 62 | 340 | 0.0 | 0.0 | 0.00 | 0.00 | 0.00 | 93 | 1014.3 |
| 20260906030654 | 62 | 340 | 0.0 | 0.0 | 0.00 | 0.00 | 0.00 | 93 | 1014.3 |
| 20260906030548 | 62 | 340 | 0.0 | 0.0 | 0.00 | 0.00 | 0.00 | 93 | 1014.3 |
| 20260906030357 | 62 | 340 | 0.0 | 0.0 | 0.00 | 0.00 | 0.00 | 93 | 1014.3 |
| 20260906030319 | 62 | 340 | 0.0 | 0.0 | 0.00 | 0.00 | 0.00 | 93 | 1014.3 |
| 20260906030149 | 62 | 340 | 0.0 | 0.0 | 0.00 | 0.00 | 0.00 | 93 | 1014.3 |
| 20260906030049 | 62 | 340 | 0.0 | 0.0 | 0.00 | 0.00 | 0.00 | 93 | 1014.3 |
| 20260906025924 | 62 | 340 | 0.0 | 0.0 | 0.00 | 0.00 | 0.00 | 93 | 1014.3 |
| 20260906025844 | 62 | 340 | 0.0 | 0.0 | 0.00 | 0.00 | 0.00 | 93 | 1014.3 |
| 20260906025805 | 62 | 340 | 0.0 | 0.0 | 0.00 | 0.00 | 0.00 | 93 | 1014.3 |
| 20260906025706 | 62 | 340 | 0.0 | 0.0 | 0.00 | 0.00 | 0.00 | 93 | 1014.3 |
| 20260906025629 | 62 | 340 | 0.0 | 0.0 | 0.00 | 0.00 | 0.00 | 93 | 1014.3 |
| 20260906025434 | 62 | 340 | 0.0 | 0.0 | 0.00 | 0.00 | 0.00 | 93 | 1014.4 |
| 20260906025334 | 62 | 340 | 0.0 | 0.0 | 0.00 | 0.00 | 0.00 | 93 | 1014.4 |
| 20260906025227 | 62 | 340 | 0.0 | 0.0 | 0.00 | 0.00 | 0.00 | 93 | 1014.4 |
| 20260906025129 | 62 | 340 | 0.0 | 0.0 | 0.00 | 0.00 | 0.00 | 93 | 1014.4 |
| 20260906024937 | 62 | 340 | 0.0 | 0.0 | 0.00 | 0.00 | 0.00 | 93 | 1014.4 |
| 20260906024839 | 62 | 340 | 0.0 | 0.0 | 0.00 | 0.00 | 0.00 | 93 | 1014.4 |
| 20260906024723 | 62 | 340 | 0.0 | 0.0 | 0.00 | 0.00 | 0.00 | 93 | 1014.4 |
| 20260906024646 | 62 | 340 | 0.0 | 0.0 | 0.00 | 0.00 | 0.00 | 93 | 1014.3 |
| 20260906024540 | 62 | 340 | 0.0 | 0.0 | 0.00 | 0.00 | 0.00 | 93 | 1014.4 |
| 20260906024441 | 62 | 340 | 0.0 | 0.0 | 0.00 | 0.00 | 0.00 | 93 | 1014.4 |
| 20260906024312 | 62 | 340 | 0.0 | 0.0 | 0.00 | 0.00 | 0.00 | 93 | 1014.4 |
| 20260906024234 | 62 | 340 | 0.0 | 0.0 | 0.00 | 0.00 | 0.00 | 93 | 1014.4 |
| 20260906024039 | 62 | 340 | 0.0 | 0.0 | 0.00 | 0.00 | 0.00 | 93 | 1014.3 |
| 20260906024003 | 62 | 340 | 0.0 | 0.0 | 0.00 | 0.00 | 0.00 | 93 | 1014.3 |
| 20260906023908 | 62 | 340 | 0.0 | 0.0 | 0.00 | 0.00 | 0.00 | 93 | 1014.3 |
| 20260906023829 | 62 | 340 | 0.0 | 0.0 | 0.00 | 0.00 | 0.00 | 93 | 1014.3 |
| 20260906023633 | 62 | 340 | 0.0 | 0.0 | 0.00 | 0.00 | 0.00 | 93 | 1014.3 |
| 20260906023535 | 62 | 340 | 0.0 | 0.0 | 0.00 | 0.00 | 0.00 | 93 | 1014.3 |
| 20260906023438 | 62 | 340 | 0.0 | 0.0 | 0.00 | 0.00 | 0.00 | 93 | 1014.3 |
| 20260906023400 | 62 | 340 | 0.0 | 0.0 | 0.00 | 0.00 | 0.00 | 92 | 1014.3 |
| 20260906023224 | 62 | 340 | 0.0 | 0.0 | 0.00 | 0.00 | 0.00 | 92 | 1014.3 |
| 20260906023124 | 62 | 340 | 0.0 | 0.0 | 0.00 | 0.00 | 0.00 | 92 | 1014.4 |
| 20260906023051 | 62 | 340 | 0.0 | 0.0 | 0.00 | 0.00 | 0.00 | 92 | 1014.3 |
| 20260906022954 | 62 | 340 | 0.0 | 0.0 | 0.00 | 0.00 | 0.00 | 92 | 1014.3 |
| 20260906022916 | 62 | 340 | 0.0 | 0.0 | 0.00 | 0.00 | 0.00 | 92 | 1014.3 |
| 20260906022745 | 62 | 340 | 0.0 | 0.0 | 0.00 | 0.00 | 0.00 | 92 | 1014.3 |
| 20260906022641 | 62 | 340 | 0.0 | 0.0 | 0.00 | 0.00 | 0.00 | 92 | 1014.3 |
| 20260906022525 | 62 | 340 | 0.0 | 0.0 | 0.00 | 0.00 | 0.00 | 92 | 1014.3 |
| 20260906022446 | 62 | 340 | 0.0 | 0.0 | 0.00 | 0.00 | 0.00 | 92 | 1014.3 |
| 20260906022328 | 62 | 340 | 0.0 | 0.0 | 0.00 | 0.00 | 0.00 | 92 | 1014.3 |
| 20260906022209 | 62 | 340 | 0.0 | 0.0 | 0.00 | 0.00 | 0.00 | 92 | 1014.3 |
| 20260906022131 | 62 | 340 | 0.0 | 0.0 | 0.00 | 0.00 | 0.00 | 92 | 1014.3 |
| 20260906022002 | 62 | 340 | 0.0 | 0.0 | 0.00 | 0.00 | 0.00 | 92 | 1014.3 |
| 20260906021921 | 62 | 340 | 0.0 | 0.0 | 0.00 | 0.00 | 0.00 | 92 | 1014.3 |
| 20260906021728 | 62 | 340 | 0.0 | 0.0 | 0.00 | 0.00 | 0.00 | 92 | 1014.3 |
| 20260906021643 | 62 | 340 | 0.0 | 0.0 | 0.00 | 0.00 | 0.00 | 92 | 1014.3 |
| 20260906021513 | 62 | 340 | 0.0 | 0.0 | 0.00 | 0.00 | 0.00 | 92 | 1014.3 |
| 20260906021433 | 62 | 340 | 0.0 | 0.0 | 0.00 | 0.00 | 0.00 | 92 | 1014.3 |
| 20260906021304 | 62 | 340 | 0.0 | 0.0 | 0.00 | 0.00 | 0.00 | 92 | 1014.3 |
| 20260906021218 | 62 | 340 | 0.0 | 0.0 | 0.00 | 0.00 | 0.00 | 92 | 1014.3 |
| 20260906021040 | 62 | 340 | 0.0 | 0.0 | 0.00 | 0.00 | 0.00 | 92 | 1014.3 |
| 20260906020933 | 62 | 340 | 0.0 | 0.0 | 0.00 | 0.00 | 0.00 | 92 | 1014.3 |
| 20260906020856 | 62 | 340 | 0.0 | 0.0 | 0.00 | 0.00 | 0.00 | 92 | 1014.3 |
| 20260906020805 | 62 | 340 | 0.0 | 0.0 | 0.00 | 0.00 | 0.00 | 92 | 1014.3 |
| 20260906020726 | 62 | 340 | 0.0 | 0.0 | 0.00 | 0.00 | 0.00 | 92 | 1014.3 |
| 20260906020530 | 62 | 340 | 0.0 | 0.0 | 0.00 | 0.00 | 0.00 | 92 | 1014.3 |
| 20260906020431 | 62 | 340 | 0.0 | 0.0 | 0.00 | 0.00 | 0.00 | 92 | 1014.3 |
| 20260906020335 | 62 | 340 | 0.0 | 0.0 | 0.00 | 0.00 | 0.00 | 92 | 1014.4 |
| 20260906020236 | 62 | 340 | 0.0 | 0.0 | 0.00 | 0.00 | 0.00 | 92 | 1014.4 |
| 20260906020106 | 62 | 340 | 0.0 | 0.0 | 0.00 | 0.00 | 0.00 | 92 | 1014.4 |
| 20260906015940 | 62 | 340 | 0.0 | 0.0 | 0.00 | 0.00 | 0.00 | 92 | 1014.4 |
| 20260906015823 | 62 | 340 | 0.0 | 0.9 | 0.00 | 0.00 | 0.00 | 92 | 1014.4 |
| 20260906015750 | 62 | 340 | 0.0 | 0.9 | 0.00 | 0.00 | 0.00 | 92 | 1014.4 |
| 20260906015539 | 62 | 340 | 0.0 | 0.9 | 0.00 | 0.00 | 0.00 | 92 | 1014.4 |
| 20260906015434 | 62 | 340 | 0.0 | 0.9 | 0.00 | 0.00 | 0.00 | 92 | 1014.4 |
| 20260906015357 | 62 | 340 | 0.0 | 0.9 | 0.00 | 0.00 | 0.00 | 92 | 1014.4 |
| 20260906015259 | 62 | 340 | 0.0 | 0.9 | 0.00 | 0.00 | 0.00 | 92 | 1014.4 |
| 20260906015141 | 63 | 340 | 0.0 | 0.9 | 0.00 | 0.00 | 0.00 | 92 | 1014.4 |
| 20260906015043 | 62 | 340 | 0.0 | 0.9 | 0.00 | 0.00 | 0.00 | 92 | 1014.4 |
| 20260906015005 | 62 | 340 | 0.0 | 0.9 | 0.00 | 0.00 | 0.00 | 92 | 1014.4 |
| 20260906014835 | 62 | 338 | 0.0 | 0.9 | 0.00 | 0.00 | 0.00 | 92 | 1014.3 |
| 20260906014728 | 62 | 338 | 0.0 | 0.9 | 0.00 | 0.00 | 0.00 | 92 | 1014.3 |
| 20260906014542 | 63 | 338 | 0.0 | 0.9 | 0.00 | 0.00 | 0.00 | 92 | 1014.3 |
| 20260906014456 | 63 | 338 | 0.0 | 0.9 | 0.00 | 0.00 | 0.00 | 92 | 1014.3 |
| 20260906014251 | 63 | 338 | 0.0 | 1.7 | 0.00 | 0.00 | 0.00 | 91 | 1014.4 |
| 20260906014153 | 63 | 338 | 0.9 | 1.7 | 0.00 | 0.00 | 0.00 | 91 | 1014.4 |
| 20260906014036 | 63 | 338 | 0.9 | 1.7 | 0.00 | 0.00 | 0.00 | 91 | 1014.4 |
| 20260906013959 | 63 | 338 | 0.0 | 1.7 | 0.00 | 0.00 | 0.00 | 91 | 1014.4 |
| 20260906013840 | 63 | 338 | 0.0 | 1.7 | 0.00 | 0.00 | 0.00 | 91 | 1014.4 |
| 20260906013801 | 63 | 338 | 0.0 | 1.7 | 0.00 | 0.00 | 0.00 | 91 | 1014.4 |
| 20260906013625 | 63 | 338 | 0.9 | 1.7 | 0.00 | 0.00 | 0.00 | 92 | 1014.4 |
| 20260906013546 | 63 | 338 | 0.0 | 1.7 | 0.00 | 0.00 | 0.00 | 92 | 1014.4 |
| 20260906013359 | 63 | 338 | 0.0 | 0.9 | 0.00 | 0.00 | 0.00 | 92 | 1014.4 |
| 20260906013321 | 63 | 338 | 0.0 | 0.9 | 0.00 | 0.00 | 0.00 | 92 | 1014.4 |
| 20260906013126 | 63 | 338 | 0.0 | 0.9 | 0.00 | 0.00 | 0.00 | 92 | 1014.4 |
| 20260906013047 | 63 | 333 | 0.0 | 1.7 | 0.00 | 0.00 | 0.00 | 92 | 1014.5 |
| 20260906012952 | 63 | 333 | 0.0 | 2.6 | 0.00 | 0.00 | 0.00 | 92 | 1014.4 |
| 20260906012914 | 63 | 333 | 0.0 | 2.6 | 0.00 | 0.00 | 0.00 | 92 | 1014.5 |
| 20260906012745 | 63 | 333 | 0.0 | 2.6 | 0.00 | 0.00 | 0.00 | 92 | 1014.5 |
| 20260906012642 | 63 | 333 | 0.0 | 2.6 | 0.00 | 0.00 | 0.00 | 92 | 1014.5 |
| 20260906012526 | 62 | 333 | 0.0 | 2.6 | 0.00 | 0.00 | 0.00 | 92 | 1014.4 |
| 20260906012434 | 63 | 329 | 0.0 | 2.6 | 0.00 | 0.00 | 0.00 | 92 | 1014.4 |
| 20260906012354 | 62 | 329 | 0.0 | 2.6 | 0.00 | 0.00 | 0.00 | 92 | 1014.4 |
| 20260906012258 | 63 | 329 | 1.7 | 2.6 | 0.00 | 0.00 | 0.00 | 92 | 1014.4 |
| 20260906012159 | 63 | 329 | 1.7 | 2.6 | 0.00 | 0.00 | 0.00 | 92 | 1014.4 |
| 20260906012028 | 63 | 329 | 2.6 | 2.6 | 0.00 | 0.00 | 0.00 | 92 | 1014.4 |
| 20260906011912 | 63 | 327 | 2.6 | 3.5 | 0.00 | 0.00 | 0.00 | 92 | 1014.4 |
| 20260906011833 | 63 | 327 | 1.7 | 3.5 | 0.00 | 0.00 | 0.00 | 92 | 1014.4 |
| 20260906011637 | 63 | 326 | 1.7 | 3.5 | 0.00 | 0.00 | 0.00 | 92 | 1014.3 |
| 20260906011540 | 63 | 326 | 1.7 | 3.5 | 0.00 | 0.00 | 0.00 | 92 | 1014.4 |
| 20260906011444 | 63 | 326 | 1.7 | 3.5 | 0.00 | 0.00 | 0.00 | 92 | 1014.4 |
| 20260906011404 | 63 | 326 | 1.7 | 3.5 | 0.00 | 0.00 | 0.00 | 92 | 1014.3 |
| 20260906011228 | 63 | 340 | 2.6 | 3.5 | 0.00 | 0.00 | 0.00 | 91 | 1014.3 |
| 20260906011122 | 63 | 340 | 2.6 | 3.5 | 0.00 | 0.00 | 0.00 | 91 | 1014.3 |
| 20260906010952 | 63 | 340 | 1.7 | 2.6 | 0.00 | 0.00 | 0.00 | 91 | 1014.3 |
| 20260906010915 | 63 | 340 | 1.7 | 2.6 | 0.00 | 0.00 | 0.00 | 91 | 1014.3 |
| 20260906010746 | 63 | 340 | 1.7 | 2.6 | 0.00 | 0.00 | 0.00 | 91 | 1014.3 |
| 20260906010702 | 63 | 317 | 1.7 | 2.6 | 0.00 | 0.00 | 0.00 | 91 | 1014.3 |
| 20260906010511 | 63 | 317 | 1.7 | 2.6 | 0.00 | 0.00 | 0.00 | 91 | 1014.4 |
| 20260906010433 | 63 | 315 | 1.7 | 2.6 | 0.00 | 0.00 | 0.00 | 91 | 1014.4 |
| 20260906010235 | 63 | 315 | 1.7 | 2.6 | 0.00 | 0.00 | 0.00 | 91 | 1014.4 |
| 20260906010158 | 63 | 315 | 1.7 | 3.5 | 0.00 | 0.00 | 0.00 | 91 | 1014.3 |
| 20260906010040 | 63 | 315 | 1.7 | 3.5 | 0.00 | 0.00 | 0.00 | 91 | 1014.4 |
| 20260906010005 | 63 | 315 | 1.7 | 3.5 | 0.00 | 0.00 | 0.00 | 91 | 1014.3 |
| 20260906005808 | 63 | 315 | 1.7 | 3.5 | 0.00 | 0.00 | 0.00 | 91 | 1014.3 |
| 20260906005729 | 63 | 315 | 1.7 | 3.5 | 0.00 | 0.00 | 0.00 | 91 | 1014.3 |
| 20260906005559 | 63 | 313 | 1.7 | 3.5 | 0.00 | 0.00 | 0.00 | 91 | 1014.3 |
| 20260906005522 | 63 | 312 | 1.7 | 3.5 | 0.00 | 0.00 | 0.00 | 91 | 1014.3 |
| 20260906005307 | 63 | 321 | 2.6 | 3.5 | 0.00 | 0.00 | 0.00 | 91 | 1014.3 |
| 20260906005229 | 63 | 321 | 1.7 | 3.5 | 0.00 | 0.00 | 0.00 | 91 | 1014.3 |
| 20260906005031 | 63 | 325 | 1.7 | 2.6 | 0.00 | 0.00 | 0.00 | 91 | 1014.3 |
| 20260906004954 | 63 | 337 | 1.7 | 2.6 | 0.00 | 0.00 | 0.00 | 91 | 1014.2 |
| 20260906004858 | 63 | 345 | 1.7 | 2.6 | 0.00 | 0.00 | 0.00 | 91 | 1014.2 |
| 20260906004819 | 63 | 345 | 1.7 | 3.5 | 0.00 | 0.00 | 0.00 | 91 | 1014.2 |
| 20260906004628 | 63 | 345 | 1.7 | 3.5 | 0.00 | 0.00 | 0.00 | 91 | 1014.2 |
| 20260906004531 | 63 | 345 | 1.7 | 3.5 | 0.00 | 0.00 | 0.00 | 91 | 1014.2 |
| 20260906004434 | 63 | 345 | 1.7 | 3.5 | 0.00 | 0.00 | 0.00 | 91 | 1014.2 |
| 20260906004337 | 63 | 340 | 1.7 | 3.5 | 0.00 | 0.00 | 0.00 | 91 | 1014.2 |
| 20260906004259 | 63 | 340 | 1.7 | 3.5 | 0.00 | 0.00 | 0.00 | 91 | 1014.2 |
| 20260906004124 | 63 | 333 | 2.6 | 3.5 | 0.00 | 0.00 | 0.00 | 91 | 1014.2 |
| 20260906004037 | 63 | 343 | 2.6 | 3.5 | 0.00 | 0.00 | 0.00 | 91 | 1014.2 |
| 20260906003944 | 63 | 343 | 2.6 | 3.5 | 0.00 | 0.00 | 0.00 | 91 | 1014.2 |
| 20260906003828 | 63 | 344 | 1.7 | 2.6 | 0.00 | 0.00 | 0.00 | 91 | 1014.2 |
| 20260906003723 | 63 | 342 | 0.9 | 2.6 | 0.00 | 0.00 | 0.00 | 91 | 1014.2 |
| 20260906003626 | 63 | 342 | 0.9 | 2.6 | 0.00 | 0.00 | 0.00 | 91 | 1014.2 |
| 20260906003551 | 63 | 331 | 0.9 | 2.6 | 0.00 | 0.00 | 0.00 | 91 | 1014.2 |
| 20260906003433 | 63 | 346 | 0.9 | 2.6 | 0.00 | 0.00 | 0.00 | 91 | 1014.2 |
| 20260906003337 | 63 | 345 | 0.0 | 3.5 | 0.00 | 0.00 | 0.00 | 91 | 1014.1 |
| 20260906003300 | 63 | 345 | 0.0 | 3.5 | 0.00 | 0.00 | 0.00 | 91 | 1014.2 |
| 20260906003127 | 63 | 345 | 0.9 | 3.5 | 0.00 | 0.00 | 0.00 | 91 | 1014.2 |
| 20260906003048 | 63 | 341 | 0.9 | 3.5 | 0.00 | 0.00 | 0.00 | 91 | 1014.1 |
| 20260906002917 | 63 | 341 | 0.9 | 3.5 | 0.00 | 0.00 | 0.00 | 91 | 1014.2 |
| 20260906002832 | 63 | 341 | 0.9 | 3.5 | 0.00 | 0.00 | 0.00 | 91 | 1014.2 |
| 20260906002704 | 63 | 341 | 1.7 | 3.5 | 0.00 | 0.00 | 0.00 | 91 | 1014.1 |
| 20260906002624 | 63 | 341 | 1.7 | 3.5 | 0.00 | 0.00 | 0.00 | 91 | 1014.1 |
| 20260906002434 | 63 | 333 | 1.7 | 3.5 | 0.00 | 0.00 | 0.00 | 91 | 1014.2 |
| 20260906002328 | 63 | 338 | 2.6 | 3.5 | 0.00 | 0.00 | 0.00 | 91 | 1014.2 |
| 20260906002250 | 63 | 338 | 2.6 | 3.5 | 0.00 | 0.00 | 0.00 | 91 | 1014.2 |
| 20260906002154 | 63 | 337 | 2.6 | 3.5 | 0.00 | 0.00 | 0.00 | 91 | 1014.1 |
| 20260906002035 | 63 | 338 | 2.6 | 3.5 | 0.00 | 0.00 | 0.00 | 91 | 1014.1 |
| 20260906001923 | 63 | 338 | 1.7 | 2.6 | 0.00 | 0.00 | 0.00 | 91 | 1014.1 |
| 20260906001846 | 63 | 347 | 1.7 | 2.6 | 0.00 | 0.00 | 0.00 | 91 | 1014.1 |
| 20260906001537 | 63 | 336 | 1.7 | 2.6 | 0.00 | 0.00 | 0.00 | 91 | 1014.1 |
| 20260906001433 | 63 | 336 | 1.7 | 2.6 | 0.00 | 0.00 | 0.00 | 91 | 1014.1 |
| 20260906001333 | 63 | 336 | 1.7 | 2.6 | 0.00 | 0.00 | 0.00 | 91 | 1014.1 |
| 20260906001247 | 63 | 336 | 1.7 | 2.6 | 0.00 | 0.00 | 0.00 | 91 | 1014.1 |
| 20260906001117 | 64 | 336 | 1.7 | 2.6 | 0.00 | 0.00 | 0.00 | 91 | 1014.0 |
| 20260906001038 | 64 | 336 | 1.7 | 2.6 | 0.00 | 0.00 | 0.00 | 91 | 1014.0 |
| 20260906000902 | 64 | 342 | 1.7 | 3.5 | 0.00 | 0.00 | 0.00 | 91 | 1014.0 |
| 20260906000828 | 64 | 342 | 1.7 | 3.5 | 0.00 | 0.00 | 0.00 | 91 | 1014.0 |
| 20260906000658 | 64 | 318 | 1.7 | 3.5 | 0.00 | 0.00 | 0.00 | 91 | 1013.9 |
| 20260906000620 | 64 | 344 | 1.7 | 3.5 | 0.00 | 0.00 | 0.00 | 91 | 1013.8 |
| 20260906000425 | 64 | 355 | 0.9 | 3.5 | 0.00 | 0.00 | 0.00 | 90 | 1013.8 |
| 20260906000348 | 64 | 355 | 0.9 | 3.5 | 0.00 | 0.00 | 0.00 | 90 | 1013.8 |
| 20260906000230 | 64 | 355 | 1.7 | 4.3 | 0.00 | 0.00 | 0.00 | 90 | 1013.8 |
| 20260906000152 | 64 | 347 | 1.7 | 4.3 | 0.00 | 0.00 | 0.00 | 90 | 1013.8 |
| 20260906000035 | 64 | 355 | 1.7 | 4.3 | 0.00 | 0.00 | 0.00 | 90 | 1013.8 |
| 20260905235829 | 64 | 351 | 0.9 | 4.3 | 0.00 | 0.00 | 0.00 | 90 | 1013.8 |
| 20260905235754 | 64 | 355 | 1.7 | 4.3 | 0.00 | 0.00 | 0.00 | 90 | 1013.8 |
| 20260905235625 | 64 | 336 | 2.6 | 4.3 | 0.00 | 0.00 | 0.00 | 90 | 1013.8 |
| 20260905235518 | 64 | 340 | 2.6 | 4.3 | 0.00 | 0.00 | 0.00 | 90 | 1013.8 |
| 20260905235348 | 64 | 344 | 0.9 | 3.5 | 0.00 | 0.00 | 0.00 | 90 | 1013.8 |
| 20260905235248 | 64 | 344 | 0.9 | 3.5 | 0.00 | 0.00 | 0.00 | 90 | 1013.8 |
| 20260905235210 | 64 | 344 | 0.9 | 4.3 | 0.00 | 0.00 | 0.00 | 90 | 1013.8 |
| 20260905235113 | 64 | 344 | 1.7 | 4.3 | 0.00 | 0.00 | 0.00 | 90 | 1013.8 |
| 20260905235036 | 64 | 344 | 1.7 | 4.3 | 0.00 | 0.00 | 0.00 | 90 | 1013.8 |
| 20260905234905 | 64 | 340 | 1.7 | 4.3 | 0.00 | 0.00 | 0.00 | 90 | 1013.8 |
| 20260905234739 | 64 | 19 | 1.7 | 4.3 | 0.00 | 0.00 | 0.00 | 90 | 1013.7 |
| 20260905234623 | 64 | 349 | 1.7 | 4.3 | 0.00 | 0.00 | 0.00 | 90 | 1013.7 |
| 20260905234550 | 64 | 331 | 2.6 | 4.3 | 0.00 | 0.00 | 0.00 | 90 | 1013.8 |
| 20260905234451 | 64 | 331 | 2.6 | 4.3 | 0.00 | 0.00 | 0.00 | 90 | 1013.7 |
| 20260905234333 | 64 | 331 | 2.6 | 4.3 | 0.00 | 0.00 | 0.00 | 90 | 1013.7 |
| 20260905234254 | 64 | 333 | 2.6 | 4.3 | 0.00 | 0.00 | 0.00 | 90 | 1013.7 |
| 20260905234137 | 64 | 323 | 2.6 | 3.5 | 0.00 | 0.00 | 0.00 | 90 | 1013.7 |
| 20260905234039 | 64 | 321 | 2.6 | 3.5 | 0.00 | 0.00 | 0.00 | 90 | 1013.8 |
| 20260905234001 | 64 | 321 | 2.6 | 3.5 | 0.00 | 0.00 | 0.00 | 90 | 1013.7 |
| 20260905233840 | 64 | 321 | 2.6 | 3.5 | 0.00 | 0.00 | 0.00 | 90 | 1013.7 |
| 20260905233812 | 64 | 318 | 2.6 | 3.5 | 0.00 | 0.00 | 0.00 | 90 | 1013.7 |
| 20260905233638 | 64 | 320 | 1.7 | 3.5 | 0.00 | 0.00 | 0.00 | 89 | 1013.7 |
| 20260905233559 | 64 | 332 | 1.7 | 3.5 | 0.00 | 0.00 | 0.00 | 89 | 1013.7 |
| 20260905233344 | 64 | 345 | 1.7 | 3.5 | 0.00 | 0.00 | 0.00 | 89 | 1013.6 |
| 20260905233306 | 64 | 328 | 1.7 | 3.5 | 0.00 | 0.00 | 0.00 | 89 | 1013.6 |
| 20260905233212 | 64 | 334 | 1.7 | 3.5 | 0.00 | 0.00 | 0.00 | 89 | 1013.6 |
| 20260905233131 | 64 | 334 | 1.7 | 3.5 | 0.00 | 0.00 | 0.00 | 89 | 1013.6 |
| 20260905233003 | 65 | 337 | 2.6 | 3.5 | 0.00 | 0.00 | 0.00 | 88 | 1013.5 |
| 20260905232915 | 65 | 340 | 2.6 | 3.5 | 0.00 | 0.00 | 0.00 | 88 | 1013.6 |
| 20260905232745 | 65 | 334 | 2.6 | 3.5 | 0.00 | 0.00 | 0.00 | 88 | 1013.5 |
| 20260905232707 | 65 | 324 | 1.7 | 3.5 | 0.00 | 0.00 | 0.00 | 88 | 1013.5 |
| 20260905232517 | 65 | 355 | 1.7 | 3.5 | 0.00 | 0.00 | 0.00 | 88 | 1013.5 |
| 20260905232432 | 65 | 360 | 1.7 | 3.5 | 0.00 | 0.00 | 0.00 | 87 | 1013.5 |
| 20260905232306 | 65 | 355 | 1.7 | 2.6 | 0.00 | 0.00 | 0.00 | 87 | 1013.5 |
| 20260905232227 | 65 | 350 | 1.7 | 2.6 | 0.00 | 0.00 | 0.00 | 87 | 1013.5 |
| 20260905232032 | 65 | 344 | 0.0 | 2.6 | 0.00 | 0.00 | 0.00 | 88 | 1013.5 |
| 20260905231954 | 65 | 344 | 0.9 | 2.6 | 0.00 | 0.00 | 0.00 | 88 | 1013.4 |
| 20260905231839 | 65 | 344 | 1.7 | 2.6 | 0.00 | 0.00 | 0.00 | 87 | 1013.4 |
| 20260905231801 | 65 | 344 | 1.7 | 2.6 | 0.00 | 0.00 | 0.00 | 87 | 1013.4 |
| 20260905231604 | 65 | 344 | 1.7 | 3.5 | 0.00 | 0.00 | 0.00 | 87 | 1013.4 |
| 20260905231526 | 66 | 344 | 1.7 | 4.3 | 0.00 | 0.00 | 0.00 | 86 | 1013.4 |
| 20260905231337 | 66 | 360 | 0.9 | 4.3 | 0.00 | 0.00 | 0.00 | 86 | 1013.3 |
| 20260905231252 | 66 | 360 | 0.9 | 4.3 | 0.00 | 0.00 | 0.00 | 86 | 1013.4 |
| 20260905231126 | 66 | 360 | 1.7 | 4.3 | 0.00 | 0.00 | 0.00 | 84 | 1013.3 |
| 20260905231027 | 66 | 360 | 1.7 | 4.3 | 0.00 | 0.00 | 0.00 | 85 | 1013.3 |
| 20260905230830 | 66 | 347 | 2.6 | 4.3 | 0.00 | 0.00 | 0.00 | 84 | 1013.4 |
| 20260905230725 | 66 | 326 | 2.6 | 4.3 | 0.00 | 0.00 | 0.00 | 84 | 1013.4 |
| 20260905230648 | 66 | 331 | 1.7 | 4.3 | 0.00 | 0.00 | 0.00 | 84 | 1013.4 |
| 20260905230611 | 66 | 342 | 1.7 | 4.3 | 0.00 | 0.00 | 0.00 | 84 | 1013.3 |
| 20260905230453 | 67 | 19 | 1.7 | 4.3 | 0.00 | 0.00 | 0.00 | 83 | 1013.3 |
| 20260905230333 | 67 | 360 | 1.7 | 4.3 | 0.00 | 0.00 | 0.00 | 82 | 1013.4 |
| 20260905230247 | 67 | 360 | 1.7 | 4.3 | 0.00 | 0.00 | 0.00 | 82 | 1013.3 |
| 20260905230208 | 67 | 26 | 1.7 | 4.3 | 0.00 | 0.00 | 0.00 | 82 | 1013.3 |
| 20260905230112 | 67 | 5 | 1.7 | 4.3 | 0.00 | 0.00 | 0.00 | 82 | 1013.3 |
| 20260905225920 | 67 | 349 | 1.7 | 4.3 | 0.00 | 0.00 | 0.00 | 82 | 1013.3 |
| 20260905225835 | 67 | 355 | 1.7 | 4.3 | 0.00 | 0.00 | 0.00 | 82 | 1013.3 |
| 20260905225705 | 67 | 355 | 1.7 | 4.3 | 0.00 | 0.00 | 0.00 | 81 | 1013.3 |
| 20260905225627 | 67 | 347 | 1.7 | 4.3 | 0.00 | 0.00 | 0.00 | 81 | 1013.3 |
| 20260905225430 | 67 | 334 | 1.7 | 4.3 | 0.00 | 0.00 | 0.00 | 81 | 1013.3 |
| 20260905225353 | 67 | 355 | 1.7 | 4.3 | 0.00 | 0.00 | 0.00 | 80 | 1013.3 |
| 20260905225258 | 67 | 344 | 1.7 | 4.3 | 0.00 | 0.00 | 0.00 | 81 | 1013.3 |
| 20260905225219 | 67 | 355 | 2.6 | 4.3 | 0.00 | 0.00 | 0.00 | 80 | 1013.3 |
| 20260905225049 | 67 | 355 | 3.5 | 4.3 | 0.00 | 0.00 | 0.00 | 80 | 1013.3 |
| 20260905224943 | 67 | 321 | 2.6 | 5.2 | 0.00 | 0.00 | 0.00 | 80 | 1013.3 |
| 20260905224813 | 67 | 360 | 1.7 | 5.2 | 0.00 | 0.00 | 0.00 | 80 | 1013.3 |
| 20260905224738 | 67 | 360 | 1.7 | 5.2 | 0.00 | 0.00 | 0.00 | 80 | 1013.3 |
| 20260905224540 | 68 | 360 | 1.7 | 5.2 | 0.00 | 0.00 | 0.00 | 80 | 1013.3 |
| 20260905224443 | 68 | 5 | 1.7 | 5.2 | 0.00 | 0.00 | 0.00 | 80 | 1013.4 |
| 20260905224345 | 68 | 31 | 1.7 | 5.2 | 0.00 | 0.00 | 0.00 | 79 | 1013.4 |
| 20260905224245 | 68 | 37 | 1.7 | 5.2 | 0.00 | 0.00 | 0.00 | 79 | 1013.3 |
| 20260905224206 | 68 | 17 | 2.6 | 5.2 | 0.00 | 0.00 | 0.00 | 79 | 1013.3 |
| 20260905224110 | 68 | 343 | 2.6 | 6.1 | 0.00 | 0.00 | 0.00 | 79 | 1013.3 |
| 20260905224031 | 68 | 351 | 2.6 | 5.2 | 0.00 | 0.00 | 0.00 | 79 | 1013.3 |
| 20260905223903 | 68 | 344 | 2.6 | 7.0 | 0.00 | 0.00 | 0.00 | 79 | 1013.3 |
| 20260905223818 | 68 | 32 | 1.7 | 7.0 | 0.00 | 0.00 | 0.00 | 79 | 1013.3 |
| 20260905223633 | 68 | 360 | 1.7 | 7.0 | 0.00 | 0.00 | 0.00 | 79 | 1013.3 |
| 20260905223549 | 68 | 360 | 2.6 | 7.8 | 0.00 | 0.00 | 0.00 | 79 | 1013.2 |
| 20260905223418 | 68 | 5 | 2.6 | 7.8 | 0.00 | 0.00 | 0.00 | 78 | 1013.3 |
| 20260905223338 | 68 | 5 | 2.6 | 7.8 | 0.00 | 0.00 | 0.00 | 78 | 1013.3 |
| 20260905223120 | 68 | 5 | 3.5 | 7.8 | 0.00 | 0.00 | 0.00 | 78 | 1013.2 |
| 20260905223054 | 68 | 26 | 1.7 | 7.8 | 0.00 | 0.00 | 0.00 | 79 | 1013.2 |
| 20260905222957 | 68 | 348 | 1.7 | 7.8 | 0.00 | 0.00 | 0.00 | 78 | 1013.2 |
| 20260905222918 | 68 | 348 | 1.7 | 7.8 | 0.00 | 0.00 | 0.00 | 79 | 1013.2 |
| 20260905222723 | 68 | 333 | 3.5 | 7.8 | 0.00 | 0.00 | 0.00 | 78 | 1013.2 |
| 20260905222629 | 68 | 360 | 1.7 | 7.0 | 0.00 | 0.00 | 0.00 | 79 | 1013.2 |
| 20260905222531 | 68 | 355 | 0.9 | 7.0 | 0.00 | 0.00 | 0.00 | 79 | 1013.1 |
| 20260905222453 | 69 | 355 | 1.7 | 7.0 | 0.00 | 0.00 | 0.00 | 79 | 1013.1 |
| 20260905222414 | 69 | 350 | 1.7 | 7.0 | 0.00 | 0.00 | 0.00 | 79 | 1013.2 |
| 20260905222317 | 69 | 343 | 3.5 | 7.0 | 0.00 | 0.00 | 0.00 | 79 | 1013.1 |
| 20260905222237 | 69 | 331 | 4.3 | 7.0 | 0.00 | 0.00 | 0.00 | 78 | 1013.1 |
| 20260905222108 | 69 | 345 | 4.3 | 7.0 | 0.00 | 0.00 | 0.00 | 79 | 1013.1 |
| 20260905222023 | 69 | 337 | 3.5 | 7.0 | 0.00 | 0.00 | 0.00 | 79 | 1013.1 |
| 20260905221834 | 69 | 29 | 2.6 | 7.0 | 0.00 | 0.00 | 0.00 | 78 | 1013.1 |
| 20260905221750 | 69 | 55 | 2.6 | 7.0 | 0.00 | 0.00 | 0.00 | 79 | 1013.1 |
| 20260905221620 | 69 | 325 | 1.7 | 4.3 | 0.00 | 0.00 | 0.00 | 79 | 1013.0 |
| 20260905221543 | 69 | 5 | 1.7 | 4.3 | 0.00 | 0.00 | 0.00 | 79 | 1013.0 |
| 20260905221328 | 69 | 360 | 0.9 | 4.3 | 0.00 | 0.00 | 0.00 | 79 | 1013.1 |
| 20260905221228 | 69 | 360 | 1.7 | 4.3 | 0.00 | 0.00 | 0.00 | 79 | 1013.1 |
| 20260905221133 | 69 | 14 | 2.6 | 4.3 | 0.00 | 0.00 | 0.00 | 79 | 1013.1 |
| 20260905221055 | 69 | 342 | 2.6 | 5.2 | 0.00 | 0.00 | 0.00 | 79 | 1013.1 |
| 20260905220926 | 69 | 350 | 1.7 | 5.2 | 0.00 | 0.00 | 0.00 | 79 | 1013.1 |
| 20260905220818 | 69 | 23 | 1.7 | 5.2 | 0.00 | 0.00 | 0.00 | 79 | 1013.1 |
| 20260905220629 | 68 | 360 | 1.7 | 7.0 | 0.00 | 0.00 | 0.00 | 79 | 1013.0 |
| 20260905220533 | 69 | 350 | 1.7 | 7.0 | 0.00 | 0.00 | 0.00 | 79 | 1013.1 |
| 20260905220455 | 68 | 52 | 2.6 | 7.0 | 0.00 | 0.00 | 0.00 | 79 | 1013.1 |
| 20260905220427 | 68 | 23 | 2.6 | 7.0 | 0.00 | 0.00 | 0.00 | 78 | 1013.1 |
| 20260905220300 | 69 | 32 | 3.5 | 7.8 | 0.00 | 0.00 | 0.00 | 78 | 1013.1 |
| 20260905220215 | 69 | 34 | 2.6 | 7.8 | 0.00 | 0.00 | 0.00 | 78 | 1013.1 |
| 20260905220025 | 69 | 344 | 3.5 | 7.8 | 0.00 | 0.00 | 0.00 | 78 | 1013.1 |
| 20260905215939 | 69 | 5 | 3.5 | 7.8 | 0.00 | 0.00 | 0.00 | 78 | 1013.1 |
| 20260905215810 | 69 | 30 | 1.7 | 7.8 | 0.00 | 0.00 | 0.00 | 79 | 1013.0 |
| 20260905215731 | 69 | 355 | 1.7 | 7.8 | 0.00 | 0.00 | 0.00 | 79 | 1013.0 |
| 20260905215536 | 69 | 330 | 3.5 | 7.8 | 0.00 | 0.00 | 0.00 | 78 | 1013.0 |
| 20260905215458 | 69 | 360 | 2.6 | 7.8 | 0.00 | 0.00 | 0.00 | 78 | 1013.0 |
| 20260905215323 | 69 | 20 | 2.6 | 7.0 | 0.00 | 0.00 | 0.00 | 78 | 1012.9 |
| 20260905215241 | 69 | 20 | 2.6 | 7.0 | 0.00 | 0.00 | 0.00 | 79 | 1013.0 |
| 20260905215111 | 69 | 338 | 2.6 | 7.0 | 0.00 | 0.00 | 0.00 | 79 | 1012.9 |
| 20260905215033 | 69 | 15 | 2.6 | 7.0 | 0.00 | 0.00 | 0.00 | 78 | 1012.9 |
| 20260905214904 | 69 | 348 | 1.7 | 5.2 | 0.00 | 0.00 | 0.00 | 78 | 1012.9 |
| 20260905214819 | 69 | 348 | 2.6 | 5.2 | 0.00 | 0.00 | 0.00 | 78 | 1013.0 |
| 20260905214628 | 69 | 318 | 3.5 | 5.2 | 0.00 | 0.00 | 0.00 | 78 | 1012.9 |
| 20260905214523 | 69 | 336 | 3.5 | 5.2 | 0.00 | 0.00 | 0.00 | 78 | 1012.9 |
| 20260905214446 | 69 | 355 | 3.5 | 5.2 | 0.00 | 0.00 | 0.00 | 78 | 1012.9 |
| 20260905214330 | 69 | 327 | 3.5 | 5.2 | 0.00 | 0.00 | 0.00 | 78 | 1012.9 |
| 20260905214253 | 69 | 309 | 3.5 | 5.2 | 0.00 | 0.00 | 0.00 | 77 | 1012.9 |
| 20260905214212 | 69 | 333 | 2.6 | 5.2 | 0.00 | 0.00 | 0.00 | 79 | 1012.9 |
| 20260905214112 | 69 | 317 | 2.6 | 5.2 | 0.00 | 0.00 | 0.00 | 78 | 1012.9 |
| 20260905214035 | 69 | 329 | 2.6 | 7.0 | 0.00 | 0.00 | 0.00 | 78 | 1012.9 |
| 20260905213837 | 69 | 338 | 2.6 | 8.7 | 0.00 | 0.00 | 0.00 | 77 | 1012.9 |
| 20260905213757 | 69 | 300 | 2.6 | 8.7 | 0.00 | 0.00 | 0.00 | 78 | 1012.8 |
| 20260905213643 | 69 | 321 | 2.6 | 8.7 | 0.00 | 0.00 | 0.00 | 78 | 1012.8 |
| 20260905213605 | 69 | 343 | 3.5 | 8.7 | 0.00 | 0.00 | 0.00 | 78 | 1012.8 |
| 20260905213415 | 69 | 341 | 3.5 | 8.7 | 0.00 | 0.00 | 0.00 | 77 | 1012.8 |
| 20260905213328 | 69 | 350 | 3.5 | 8.7 | 0.00 | 0.00 | 0.00 | 77 | 1012.8 |
| 20260905213159 | 69 | 329 | 6.1 | 8.7 | 0.00 | 0.00 | 0.00 | 77 | 1012.7 |
| 20260905213037 | 69 | 355 | 5.2 | 9.6 | 0.00 | 0.00 | 0.00 | 77 | 1012.8 |
| 20260905212940 | 69 | 13 | 4.3 | 9.6 | 0.00 | 0.00 | 0.00 | 76 | 1012.7 |
| 20260905212856 | 69 | 360 | 4.3 | 9.6 | 0.00 | 0.00 | 0.00 | 76 | 1012.8 |
| 20260905212817 | 69 | 345 | 4.3 | 9.6 | 0.00 | 0.00 | 0.00 | 76 | 1012.8 |
| 20260905212718 | 69 | 348 | 4.3 | 9.6 | 0.00 | 0.00 | 0.00 | 76 | 1012.7 |
| 20260905212632 | 69 | 315 | 4.3 | 9.6 | 0.00 | 0.00 | 0.00 | 77 | 1012.7 |
| 20260905212443 | 69 | 316 | 5.2 | 9.6 | 0.00 | 0.00 | 0.00 | 76 | 1012.7 |
| 20260905212340 | 69 | 338 | 4.3 | 9.6 | 0.00 | 0.00 | 0.00 | 77 | 1012.7 |
| 20260905212224 | 69 | 311 | 3.5 | 7.0 | 0.00 | 0.00 | 0.00 | 76 | 1012.7 |
| 20260905212129 | 69 | 13 | 4.3 | 7.0 | 0.00 | 0.00 | 0.00 | 77 | 1012.8 |
| 20260905212053 | 69 | 346 | 4.3 | 7.8 | 0.00 | 0.00 | 0.00 | 76 | 1012.8 |
| 20260905211958 | 69 | 329 | 4.3 | 7.8 | 0.00 | 0.00 | 0.00 | 76 | 1012.7 |
| 20260905211838 | 69 | 344 | 3.5 | 7.8 | 0.00 | 0.00 | 0.00 | 76 | 1012.7 |
| 20260905211752 | 69 | 319 | 2.6 | 9.6 | 0.00 | 0.00 | 0.00 | 77 | 1012.7 |
| 20260905211654 | 69 | 327 | 3.5 | 9.6 | 0.00 | 0.00 | 0.00 | 77 | 1012.7 |
| 20260905211614 | 69 | 348 | 4.3 | 9.6 | 0.00 | 0.00 | 0.00 | 76 | 1012.7 |
| 20260905211458 | 69 | 344 | 4.3 | 9.6 | 0.00 | 0.00 | 0.00 | 76 | 1012.6 |
| 20260905211338 | 69 | 338 | 4.3 | 9.6 | 0.00 | 0.00 | 0.00 | 75 | 1012.7 |
| 20260905211253 | 69 | 331 | 5.2 | 9.6 | 0.00 | 0.00 | 0.00 | 75 | 1012.7 |
| 20260905211218 | 70 | 323 | 5.2 | 9.6 | 0.00 | 0.00 | 0.00 | 75 | 1012.6 |
| 20260905211023 | 70 | 337 | 6.1 | 9.6 | 0.00 | 0.00 | 0.00 | 74 | 1012.6 |
| 20260905210925 | 70 | 344 | 5.2 | 8.7 | 0.00 | 0.00 | 0.00 | 75 | 1012.6 |
| 20260905210828 | 70 | 345 | 5.2 | 8.7 | 0.00 | 0.00 | 0.00 | 75 | 1012.6 |
| 20260905210748 | 70 | 355 | 5.2 | 8.7 | 0.00 | 0.00 | 0.00 | 75 | 1012.6 |
| 20260905210722 | 70 | 355 | 5.2 | 8.7 | 0.00 | 0.00 | 0.00 | 74 | 1012.6 |
| 20260905210624 | 70 | 350 | 5.2 | 8.7 | 0.00 | 0.00 | 0.00 | 75 | 1012.6 |
| 20260905210525 | 70 | 344 | 5.2 | 8.7 | 0.00 | 0.00 | 0.00 | 75 | 1012.6 |
| 20260905210327 | 70 | 350 | 4.3 | 8.7 | 0.00 | 0.00 | 0.00 | 75 | 1012.6 |
| 20260905210249 | 70 | 348 | 5.2 | 8.7 | 0.00 | 0.00 | 0.00 | 74 | 1012.6 |
| 20260905210031 | 70 | 355 | 6.1 | 8.7 | 0.00 | 0.00 | 0.00 | 74 | 1012.5 |
| 20260905205932 | 70 | 330 | 6.1 | 8.7 | 0.00 | 0.00 | 0.00 | 74 | 1012.5 |
| 20260905205733 | 70 | 5 | 3.5 | 7.8 | 0.00 | 0.00 | 0.00 | 75 | 1012.5 |
| 20260905205656 | 70 | 341 | 3.5 | 7.8 | 0.00 | 0.00 | 0.00 | 75 | 1012.5 |
| 20260905205601 | 70 | 321 | 3.5 | 7.8 | 0.00 | 0.00 | 0.00 | 75 | 1012.5 |
| 20260905205523 | 70 | 338 | 3.5 | 7.8 | 0.00 | 0.00 | 0.00 | 74 | 1012.5 |
| 20260905205327 | 70 | 325 | 3.5 | 7.8 | 0.00 | 0.00 | 0.00 | 75 | 1012.4 |
| 20260905205228 | 70 | 10 | 3.5 | 7.8 | 0.00 | 0.00 | 0.00 | 75 | 1012.4 |
| 20260905205131 | 70 | 324 | 4.3 | 7.8 | 0.00 | 0.00 | 0.00 | 74 | 1012.4 |
| 20260905205036 | 71 | 319 | 4.3 | 7.8 | 0.00 | 0.00 | 0.00 | 73 | 1012.4 |
| 20260905204959 | 71 | 313 | 4.3 | 7.8 | 0.00 | 0.00 | 0.00 | 73 | 1012.4 |
| 20260905204823 | 71 | 332 | 3.5 | 7.8 | 0.00 | 0.00 | 0.00 | 75 | 1012.4 |
| 20260905204738 | 71 | 325 | 3.5 | 8.7 | 0.00 | 0.00 | 0.00 | 75 | 1012.4 |
| 20260905204659 | 71 | 309 | 3.5 | 8.7 | 0.00 | 0.00 | 0.00 | 74 | 1012.4 |
| 20260905204619 | 71 | 333 | 4.3 | 8.7 | 0.00 | 0.00 | 0.00 | 74 | 1012.4 |
| 20260905204534 | 71 | 329 | 4.3 | 8.7 | 0.00 | 0.00 | 0.00 | 75 | 1012.4 |
| 20260905204404 | 71 | 329 | 4.3 | 8.7 | 0.00 | 0.00 | 0.00 | 74 | 1012.4 |
| 20260905204326 | 71 | 325 | 3.5 | 8.7 | 0.00 | 0.00 | 0.00 | 75 | 1012.4 |
| 20260905204132 | 70 | 324 | 3.5 | 8.7 | 0.00 | 0.00 | 0.00 | 75 | 1012.4 |
| 20260905204057 | 70 | 331 | 3.5 | 8.7 | 0.00 | 0.00 | 0.00 | 76 | 1012.4 |
| 20260905204001 | 70 | 327 | 6.1 | 8.7 | 0.00 | 0.00 | 0.00 | 75 | 1012.4 |
| 20260905203840 | 70 | 316 | 5.2 | 8.7 | 0.00 | 0.00 | 0.00 | 74 | 1012.4 |
| 20260905203723 | 70 | 329 | 4.3 | 8.7 | 0.00 | 0.00 | 0.00 | 74 | 1012.4 |
| 20260905203645 | 70 | 325 | 5.2 | 8.7 | 0.00 | 0.00 | 0.00 | 74 | 1012.4 |
| 20260905203517 | 70 | 317 | 5.2 | 8.7 | 0.00 | 0.00 | 0.00 | 74 | 1012.4 |
| 20260905203433 | 70 | 321 | 4.3 | 8.7 | 0.00 | 0.00 | 0.00 | 76 | 1012.4 |
| 20260905203244 | 70 | 344 | 5.2 | 7.8 | 0.00 | 0.00 | 0.00 | 76 | 1012.4 |
| 20260905203138 | 70 | 337 | 6.1 | 7.8 | 0.00 | 0.00 | 0.00 | 75 | 1012.4 |
| 20260905203025 | 70 | 341 | 3.5 | 7.8 | 0.00 | 0.00 | 0.00 | 74 | 1012.4 |
| 20260905202948 | 70 | 311 | 3.5 | 7.0 | 0.00 | 0.00 | 0.00 | 75 | 1012.4 |
| 20260905202817 | 70 | 315 | 3.5 | 7.0 | 0.00 | 0.00 | 0.00 | 74 | 1012.4 |
| 20260905202732 | 70 | 319 | 3.5 | 8.7 | 0.00 | 0.00 | 0.00 | 75 | 1012.4 |
| 20260905202602 | 70 | 313 | 2.6 | 8.7 | 0.00 | 0.00 | 0.00 | 76 | 1012.4 |
| 20260905202524 | 70 | 333 | 2.6 | 8.7 | 0.00 | 0.00 | 0.00 | 75 | 1012.4 |
| 20260905202328 | 70 | 347 | 3.5 | 8.7 | 0.00 | 0.00 | 0.00 | 75 | 1012.4 |
| 20260905202250 | 70 | 329 | 3.5 | 9.6 | 0.00 | 0.00 | 0.00 | 77 | 1012.4 |
| 20260905202134 | 70 | 338 | 3.5 | 10.4 | 0.00 | 0.00 | 0.00 | 76 | 1012.4 |
| 20260905202056 | 70 | 342 | 4.3 | 10.4 | 0.00 | 0.00 | 0.00 | 76 | 1012.4 |
| 20260905202023 | 70 | 335 | 5.2 | 10.4 | 0.00 | 0.00 | 0.00 | 75 | 1012.4 |
| 20260905201906 | 70 | 349 | 5.2 | 10.4 | 0.00 | 0.00 | 0.00 | 73 | 1012.4 |
| 20260905201827 | 70 | 5 | 5.2 | 10.4 | 0.00 | 0.00 | 0.00 | 75 | 1012.4 |
| 20260905201708 | 70 | 338 | 4.3 | 10.4 | 0.00 | 0.00 | 0.00 | 76 | 1012.3 |
| 20260905201623 | 70 | 38 | 3.5 | 10.4 | 0.00 | 0.00 | 0.00 | 76 | 1012.3 |
| 20260905201452 | 70 | 355 | 5.2 | 10.4 | 0.00 | 0.00 | 0.00 | 76 | 1012.4 |
| 20260905201415 | 70 | 5 | 6.1 | 10.4 | 0.00 | 0.00 | 0.00 | 75 | 1012.4 |
| 20260905201240 | 70 | 355 | 5.2 | 10.4 | 0.00 | 0.00 | 0.00 | 76 | 1012.4 |
| 20260905201140 | 70 | 339 | 5.2 | 10.4 | 0.00 | 0.00 | 0.00 | 75 | 1012.4 |
| 20260905201025 | 70 | 331 | 7.0 | 10.4 | 0.00 | 0.00 | 0.00 | 74 | 1012.3 |
| 20260905200945 | 70 | 346 | 7.0 | 10.4 | 0.00 | 0.00 | 0.00 | 74 | 1012.4 |
| 20260905200912 | 70 | 315 | 6.1 | 11.3 | 0.00 | 0.00 | 0.00 | 76 | 1012.4 |
| 20260905200817 | 70 | 315 | 6.1 | 11.3 | 0.00 | 0.00 | 0.00 | 75 | 1012.4 |
| 20260905200738 | 70 | 325 | 7.0 | 11.3 | 0.00 | 0.00 | 0.00 | 75 | 1012.4 |
| 20260905200610 | 71 | 337 | 7.8 | 11.3 | 0.00 | 0.00 | 0.00 | 74 | 1012.3 |
| 20260905200525 | 71 | 350 | 7.8 | 11.3 | 0.00 | 0.00 | 0.00 | 74 | 1012.3 |
| 20260905200334 | 71 | 329 | 6.1 | 11.3 | 0.00 | 0.00 | 0.00 | 75 | 1012.3 |
| 20260905200249 | 71 | 331 | 5.2 | 11.3 | 0.00 | 0.00 | 0.00 | 74 | 1012.3 |
| 20260905200119 | 71 | 355 | 5.2 | 11.3 | 0.00 | 0.00 | 0.00 | 73 | 1012.3 |
| 20260905200041 | 72 | 24 | 5.2 | 11.3 | 0.00 | 0.00 | 0.00 | 73 | 1012.3 |
| 20260905195843 | 72 | 350 | 4.3 | 11.3 | 0.00 | 0.00 | 0.00 | 73 | 1012.3 |
| 20260905195804 | 72 | 325 | 4.3 | 11.3 | 0.00 | 0.00 | 0.00 | 73 | 1012.3 |
| 20260905195711 | 72 | 355 | 5.2 | 11.3 | 0.00 | 0.00 | 0.00 | 73 | 1012.3 |
| 20260905195632 | 72 | 346 | 6.1 | 11.3 | 0.00 | 0.00 | 0.00 | 73 | 1012.3 |
| 20260905195445 | 72 | 339 | 7.8 | 11.3 | 0.00 | 0.00 | 0.00 | 76 | 1012.3 |
| 20260905195337 | 72 | 335 | 7.8 | 11.3 | 0.00 | 0.00 | 0.00 | 76 | 1012.3 |
| 20260905195240 | 72 | 343 | 7.8 | 11.3 | 0.00 | 0.00 | 0.00 | 75 | 1012.3 |
| 20260905195201 | 72 | 331 | 8.7 | 11.3 | 0.00 | 0.00 | 0.00 | 75 | 1012.4 |
| 20260905195102 | 71 | 5 | 7.8 | 11.3 | 0.00 | 0.00 | 0.00 | 75 | 1012.4 |
| 20260905194909 | 71 | 318 | 7.0 | 11.3 | 0.00 | 0.00 | 0.00 | 75 | 1012.4 |
| 20260905194723 | 71 | 324 | 7.0 | 11.3 | 0.00 | 0.00 | 0.00 | 75 | 1012.3 |
| 20260905194631 | 70 | 326 | 6.1 | 11.3 | 0.00 | 0.00 | 0.00 | 77 | 1012.4 |
| 20260905194553 | 70 | 331 | 5.2 | 11.3 | 0.00 | 0.00 | 0.00 | 77 | 1012.4 |
| 20260905194402 | 70 | 311 | 6.1 | 12.2 | 0.00 | 0.00 | 0.00 | 77 | 1012.4 |
| 20260905194317 | 70 | 313 | 7.8 | 12.2 | 0.00 | 0.00 | 0.00 | 76 | 1012.4 |
| 20260905194148 | 70 | 355 | 7.8 | 12.2 | 0.00 | 0.00 | 0.00 | 76 | 1012.4 |
| 20260905194049 | 70 | 298 | 7.0 | 12.2 | 0.00 | 0.00 | 0.00 | 75 | 1012.4 |
| 20260905194012 | 70 | 333 | 7.8 | 12.2 | 0.00 | 0.00 | 0.00 | 76 | 1012.4 |
| 20260905193915 | 70 | 350 | 7.0 | 12.2 | 0.00 | 0.00 | 0.00 | 75 | 1012.4 |
| 20260905193838 | 70 | 5 | 7.0 | 12.2 | 0.00 | 0.00 | 0.00 | 75 | 1012.4 |
| 20260905193708 | 70 | 53 | 6.1 | 12.2 | 0.00 | 0.00 | 0.00 | 75 | 1012.4 |
| 20260905193625 | 70 | 13 | 7.8 | 12.2 | 0.00 | 0.00 | 0.00 | 74 | 1012.4 |
| 20260905193453 | 70 | 355 | 7.0 | 11.3 | 0.00 | 0.00 | 0.00 | 75 | 1012.4 |
| 20260905193352 | 71 | 348 | 7.0 | 11.3 | 0.00 | 0.00 | 0.00 | 75 | 1012.4 |
| 20260905193241 | 71 | 336 | 7.8 | 11.3 | 0.00 | 0.00 | 0.00 | 74 | 1012.4 |
| 20260905193203 | 71 | 355 | 6.1 | 11.3 | 0.00 | 0.00 | 0.00 | 76 | 1012.3 |
| 20260905193004 | 71 | 14 | 5.2 | 8.7 | 0.00 | 0.00 | 0.00 | 75 | 1012.3 |
| 20260905192925 | 71 | 330 | 5.2 | 8.7 | 0.00 | 0.00 | 0.00 | 75 | 1012.3 |
| 20260905192737 | 71 | 360 | 4.3 | 9.6 | 0.00 | 0.00 | 0.00 | 74 | 1012.2 |
| 20260905192632 | 71 | 24 | 6.1 | 9.6 | 0.00 | 0.00 | 0.00 | 73 | 1012.3 |
| 20260905192605 | 71 | 332 | 6.1 | 9.6 | 0.00 | 0.00 | 0.00 | 74 | 1012.3 |
| 20260905192508 | 71 | 331 | 6.1 | 9.6 | 0.00 | 0.00 | 0.00 | 74 | 1012.3 |
| 20260905192430 | 71 | 330 | 5.2 | 9.6 | 0.00 | 0.00 | 0.00 | 76 | 1012.3 |
| 20260905192250 | 71 | 319 | 2.6 | 9.6 | 0.00 | 0.00 | 0.00 | 75 | 1012.2 |
| 20260905192148 | 71 | 350 | 2.6 | 9.6 | 0.00 | 0.00 | 0.00 | 74 | 1012.3 |
| 20260905192017 | 71 | 38 | 5.2 | 9.6 | 0.00 | 0.00 | 0.00 | 75 | 1012.3 |
| 20260905191917 | 71 | 5 | 5.2 | 9.6 | 0.00 | 0.00 | 0.00 | 74 | 1012.3 |
| 20260905191821 | 71 | 336 | 5.2 | 7.8 | 0.00 | 0.00 | 0.00 | 75 | 1012.3 |
| 20260905191744 | 71 | 329 | 4.3 | 7.0 | 0.00 | 0.00 | 0.00 | 77 | 1012.3 |
| 20260905191552 | 70 | 344 | 2.6 | 4.3 | 0.00 | 0.00 | 0.00 | 75 | 1012.3 |
| 20260905191453 | 70 | 311 | 2.6 | 8.7 | 0.00 | 0.00 | 0.00 | 76 | 1012.4 |
| 20260905191334 | 70 | 355 | 1.7 | 9.6 | 0.00 | 0.00 | 0.00 | 76 | 1012.4 |
| 20260905191256 | 70 | 355 | 1.7 | 9.6 | 0.00 | 0.00 | 0.00 | 76 | 1012.3 |
| 20260905191217 | 70 | 341 | 1.7 | 9.6 | 0.00 | 0.00 | 0.00 | 76 | 1012.4 |
| 20260905191120 | 70 | 331 | 2.6 | 9.6 | 0.00 | 0.00 | 0.00 | 77 | 1012.4 |
| 20260905191041 | 70 | 341 | 2.6 | 9.6 | 0.00 | 0.00 | 0.00 | 76 | 1012.4 |
| 20260905190910 | 70 | 36 | 3.5 | 10.4 | 0.00 | 0.00 | 0.00 | 77 | 1012.4 |
| 20260905190829 | 70 | 350 | 3.5 | 10.4 | 0.00 | 0.00 | 0.00 | 77 | 1012.4 |
| 20260905190659 | 70 | 5 | 6.1 | 10.4 | 0.00 | 0.00 | 0.00 | 76 | 1012.4 |
| 20260905190622 | 70 | 325 | 5.2 | 10.4 | 0.00 | 0.00 | 0.00 | 76 | 1012.4 |
| 20260905190507 | 70 | 5 | 3.5 | 10.4 | 0.00 | 0.00 | 0.00 | 76 | 1012.4 |
| 20260905190407 | 70 | 360 | 3.5 | 10.4 | 0.00 | 0.00 | 0.00 | 75 | 1012.4 |
| 20260905190339 | 70 | 355 | 2.6 | 10.4 | 0.00 | 0.00 | 0.00 | 75 | 1012.4 |
| 20260905190209 | 70 | 22 | 6.1 | 10.4 | 0.00 | 0.00 | 0.00 | 75 | 1012.4 |
| 20260905190123 | 70 | 22 | 6.1 | 10.4 | 0.00 | 0.00 | 0.00 | 76 | 1012.4 |
| 20260905185934 | 70 | 11 | 4.3 | 10.4 | 0.00 | 0.00 | 0.00 | 77 | 1012.4 |
| 20260905185829 | 70 | 315 | 5.2 | 10.4 | 0.00 | 0.00 | 0.00 | 77 | 1012.5 |
| 20260905185751 | 70 | 340 | 6.1 | 10.4 | 0.00 | 0.00 | 0.00 | 77 | 1012.5 |
| 20260905185639 | 70 | 343 | 6.1 | 10.4 | 0.00 | 0.00 | 0.00 | 76 | 1012.5 |
| 20260905185600 | 70 | 13 | 5.2 | 11.3 | 0.00 | 0.00 | 0.00 | 77 | 1012.5 |
| 20260905185453 | 69 | 360 | 6.1 | 11.3 | 0.00 | 0.00 | 0.00 | 76 | 1012.5 |
| 20260905185415 | 69 | 360 | 6.1 | 11.3 | 0.00 | 0.00 | 0.00 | 76 | 1012.5 |
| 20260905185246 | 69 | 326 | 7.0 | 11.3 | 0.00 | 0.00 | 0.00 | 77 | 1012.6 |
| 20260905185202 | 69 | 323 | 6.1 | 11.3 | 0.00 | 0.00 | 0.00 | 76 | 1012.5 |
| 20260905185031 | 69 | 331 | 7.0 | 11.3 | 0.00 | 0.00 | 0.00 | 76 | 1012.6 |
| 20260905184931 | 69 | 341 | 7.0 | 11.3 | 0.00 | 0.00 | 0.00 | 76 | 1012.6 |
| 20260905184802 | 69 | 313 | 6.1 | 11.3 | 0.00 | 0.00 | 0.00 | 77 | 1012.5 |
| 20260905184644 | 69 | 316 | 5.2 | 11.3 | 0.00 | 0.00 | 0.00 | 78 | 1012.5 |
| 20260905184606 | 69 | 13 | 5.2 | 12.2 | 0.00 | 0.00 | 0.00 | 77 | 1012.6 |
| 20260905184415 | 69 | 355 | 6.1 | 12.2 | 0.00 | 0.00 | 0.00 | 78 | 1012.5 |
| 20260905184333 | 69 | 326 | 7.0 | 12.2 | 0.00 | 0.00 | 0.00 | 77 | 1012.5 |
| 20260905184203 | 69 | 348 | 6.1 | 12.2 | 0.00 | 0.00 | 0.00 | 78 | 1012.5 |
| 20260905184126 | 69 | 333 | 7.0 | 12.2 | 0.00 | 0.00 | 0.00 | 78 | 1012.5 |
| 20260905183929 | 69 | 360 | 8.7 | 12.2 | 0.00 | 0.00 | 0.00 | 76 | 1012.5 |
| 20260905183852 | 69 | 342 | 9.6 | 12.2 | 0.00 | 0.00 | 0.00 | 76 | 1012.5 |
| 20260905183735 | 69 | 355 | 8.7 | 12.2 | 0.00 | 0.00 | 0.00 | 77 | 1012.5 |
| 20260905183658 | 69 | 324 | 7.0 | 11.3 | 0.00 | 0.00 | 0.00 | 77 | 1012.5 |
| 20260905183458 | 69 | 355 | 7.8 | 11.3 | 0.00 | 0.00 | 0.00 | 78 | 1012.5 |
| 20260905183420 | 69 | 340 | 7.8 | 11.3 | 0.00 | 0.00 | 0.00 | 78 | 1012.5 |
| 20260905183231 | 69 | 321 | 5.2 | 12.2 | 0.00 | 0.00 | 0.00 | 78 | 1012.5 |
| 20260905183149 | 69 | 355 | 3.5 | 12.2 | 0.00 | 0.00 | 0.00 | 78 | 1012.5 |
| 20260905183019 | 69 | 11 | 3.5 | 13.9 | 0.00 | 0.00 | 0.00 | 76 | 1012.5 |
| 20260905182941 | 69 | 62 | 3.5 | 15.6 | 0.00 | 0.00 | 0.00 | 76 | 1012.5 |
| 20260905182742 | 70 | 360 | 6.1 | 15.6 | 0.00 | 0.00 | 0.00 | 76 | 1012.6 |
| 20260905182704 | 70 | 347 | 7.0 | 15.6 | 0.00 | 0.00 | 0.00 | 76 | 1012.5 |
| 20260905182609 | 70 | 333 | 7.8 | 15.6 | 0.00 | 0.00 | 0.00 | 76 | 1012.6 |
| 20260905182530 | 70 | 323 | 8.7 | 15.6 | 0.00 | 0.00 | 0.00 | 75 | 1012.6 |
| 20260905182401 | 70 | 327 | 9.6 | 15.6 | 0.00 | 0.00 | 0.00 | 74 | 1012.6 |
| 20260905182306 | 70 | 300 | 9.6 | 15.6 | 0.00 | 0.00 | 0.00 | 74 | 1012.6 |
| 20260905182113 | 71 | 300 | 7.0 | 15.6 | 0.00 | 0.00 | 0.00 | 75 | 1012.6 |
| 20260905182035 | 71 | 317 | 7.0 | 10.4 | 0.00 | 0.00 | 0.00 | 76 | 1012.6 |
| 20260905181842 | 70 | 338 | 6.1 | 10.4 | 0.00 | 0.00 | 0.00 | 78 | 1012.6 |
| 20260905181742 | 70 | 336 | 6.1 | 10.4 | 0.00 | 0.00 | 0.00 | 79 | 1012.6 |
| 20260905181647 | 69 | 343 | 7.0 | 11.3 | 0.00 | 0.00 | 0.00 | 80 | 1012.6 |
| 20260905181528 | 69 | 331 | 7.8 | 11.3 | 0.00 | 0.00 | 0.00 | 80 | 1012.6 |
| 20260905181432 | 69 | 355 | 7.8 | 11.3 | 0.00 | 0.00 | 0.00 | 81 | 1012.6 |
| 20260905181353 | 68 | 343 | 6.1 | 11.3 | 0.00 | 0.00 | 0.00 | 81 | 1012.7 |
| 20260905181202 | 68 | 342 | 5.2 | 11.3 | 0.00 | 0.00 | 0.00 | 80 | 1012.7 |
| 20260905181117 | 68 | 5 | 5.2 | 11.3 | 0.00 | 0.00 | 0.00 | 80 | 1012.7 |
| 20260905180929 | 68 | 327 | 6.1 | 11.3 | 0.00 | 0.00 | 0.00 | 80 | 1012.6 |
| 20260905180844 | 68 | 333 | 7.0 | 11.3 | 0.00 | 0.00 | 0.00 | 80 | 1012.6 |
| 20260905180717 | 68 | 28 | 4.3 | 7.8 | 0.00 | 0.00 | 0.00 | 81 | 1012.6 |
| 20260905180617 | 68 | 328 | 4.3 | 7.8 | 0.00 | 0.00 | 0.00 | 82 | 1012.7 |
| 20260905180447 | 67 | 342 | 4.3 | 10.4 | 0.00 | 0.00 | 0.00 | 82 | 1012.7 |
| 20260905180342 | 67 | 321 | 5.2 | 10.4 | 0.00 | 0.00 | 0.00 | 83 | 1012.7 |
| 20260905180224 | 67 | 341 | 4.3 | 10.4 | 0.00 | 0.00 | 0.00 | 84 | 1012.6 |
| 20260905180145 | 67 | 328 | 4.3 | 11.3 | 0.00 | 0.00 | 0.00 | 83 | 1012.7 |
| 20260905180015 | 67 | 348 | 3.5 | 11.3 | 0.00 | 0.00 | 0.00 | 83 | 1012.6 |
| 20260905175929 | 67 | 360 | 3.5 | 11.3 | 0.00 | 0.00 | 0.00 | 82 | 1012.6 |
| 20260905175740 | 67 | 12 | 7.0 | 12.2 | 0.00 | 0.00 | 0.00 | 81 | 1012.7 |
| 20260905175654 | 67 | 340 | 7.0 | 12.2 | 0.00 | 0.00 | 0.00 | 81 | 1012.7 |
| 20260905175508 | 67 | 355 | 7.0 | 12.2 | 0.00 | 0.00 | 0.00 | 81 | 1012.7 |
| 20260905175429 | 67 | 348 | 7.0 | 12.2 | 0.00 | 0.00 | 0.00 | 81 | 1012.7 |
| 20260905175232 | 67 | 337 | 7.0 | 12.2 | 0.00 | 0.00 | 0.00 | 81 | 1012.7 |
| 20260905175155 | 67 | 311 | 7.0 | 12.2 | 0.00 | 0.00 | 0.00 | 81 | 1012.7 |
| 20260905175059 | 67 | 350 | 7.8 | 12.2 | 0.00 | 0.00 | 0.00 | 81 | 1012.7 |
| 20260905175021 | 67 | 360 | 7.8 | 12.2 | 0.00 | 0.00 | 0.00 | 81 | 1012.7 |
| 20260905174823 | 68 | 348 | 7.0 | 11.3 | 0.00 | 0.00 | 0.00 | 81 | 1012.7 |
| 20260905174725 | 68 | 345 | 7.0 | 11.3 | 0.00 | 0.00 | 0.00 | 82 | 1012.7 |
| 20260905174648 | 68 | 355 | 6.1 | 11.3 | 0.00 | 0.00 | 0.00 | 81 | 1012.7 |
| 20260905174601 | 68 | 350 | 6.1 | 11.3 | 0.00 | 0.00 | 0.00 | 81 | 1012.6 |
| 20260905174434 | 68 | 347 | 7.8 | 11.3 | 0.00 | 0.00 | 0.00 | 82 | 1012.6 |
| 20260905174334 | 68 | 343 | 8.7 | 11.3 | 0.00 | 0.00 | 0.00 | 81 | 1012.6 |
| 20260905174138 | 68 | 341 | 5.2 | 9.6 | 0.00 | 0.00 | 0.00 | 83 | 1012.7 |
| 20260905174059 | 68 | 350 | 6.1 | 9.6 | 0.00 | 0.00 | 0.00 | 83 | 1012.7 |
| 20260905173923 | 68 | 350 | 5.2 | 7.8 | 0.00 | 0.00 | 0.00 | 84 | 1012.7 |
| 20260905173839 | 68 | 350 | 4.3 | 7.8 | 0.00 | 0.00 | 0.00 | 83 | 1012.7 |
| 20260905173630 | 68 | 5 | 3.5 | 7.8 | 0.00 | 0.00 | 0.00 | 83 | 1012.7 |
| 20260905173545 | 68 | 297 | 3.5 | 7.8 | 0.00 | 0.00 | 0.00 | 83 | 1012.7 |
| 20260905173414 | 68 | 340 | 4.3 | 7.8 | 0.00 | 0.00 | 0.00 | 83 | 1012.7 |
| 20260905173318 | 68 | 336 | 4.3 | 7.8 | 0.00 | 0.00 | 0.00 | 83 | 1012.7 |
| 20260905173122 | 67 | 347 | 3.5 | 7.8 | 0.00 | 0.00 | 0.00 | 84 | 1012.7 |
| 20260905173043 | 67 | 328 | 2.6 | 7.8 | 0.00 | 0.00 | 0.00 | 84 | 1012.7 |
| 20260905172947 | 67 | 328 | 2.6 | 7.8 | 0.00 | 0.00 | 0.00 | 85 | 1012.7 |
| 20260905172827 | 67 | 302 | 3.5 | 9.6 | 0.00 | 0.00 | 0.00 | 85 | 1012.7 |
| 20260905172731 | 67 | 326 | 4.3 | 9.6 | 0.00 | 0.00 | 0.00 | 83 | 1012.7 |
| 20260905172652 | 67 | 321 | 5.2 | 9.6 | 0.00 | 0.00 | 0.00 | 84 | 1012.7 |
| 20260905172624 | 67 | 324 | 4.3 | 9.6 | 0.00 | 0.00 | 0.00 | 84 | 1012.7 |
| 20260905172428 | 67 | 343 | 4.3 | 9.6 | 0.00 | 0.00 | 0.00 | 85 | 1012.7 |
| 20260905172334 | 67 | 311 | 4.3 | 9.6 | 0.00 | 0.00 | 0.00 | 85 | 1012.6 |
| 20260905172236 | 67 | 343 | 3.5 | 9.6 | 0.00 | 0.00 | 0.00 | 84 | 1012.7 |
| 20260905172137 | 67 | 327 | 4.3 | 9.6 | 0.00 | 0.00 | 0.00 | 84 | 1012.7 |
| 20260905172007 | 67 | 320 | 5.2 | 9.6 | 0.00 | 0.00 | 0.00 | 84 | 1012.6 |
| 20260905171922 | 67 | 322 | 5.2 | 9.6 | 0.00 | 0.00 | 0.00 | 84 | 1012.6 |
| 20260905171730 | 67 | 338 | 5.2 | 9.6 | 0.00 | 0.00 | 0.00 | 83 | 1012.7 |
| 20260905171645 | 67 | 326 | 5.2 | 9.6 | 0.00 | 0.00 | 0.00 | 83 | 1012.7 |
| 20260905171514 | 67 | 343 | 5.2 | 9.6 | 0.00 | 0.00 | 0.00 | 83 | 1012.7 |
| 20260905171437 | 67 | 321 | 7.0 | 9.6 | 0.00 | 0.00 | 0.00 | 83 | 1012.7 |
| 20260905171301 | 67 | 327 | 7.0 | 9.6 | 0.00 | 0.00 | 0.00 | 82 | 1012.7 |
| 20260905171229 | 68 | 350 | 5.2 | 9.6 | 0.00 | 0.00 | 0.00 | 82 | 1012.7 |
| 20260905170935 | 68 | 339 | 5.2 | 8.7 | 0.00 | 0.00 | 0.00 | 81 | 1012.6 |
| 20260905170807 | 68 | 336 | 6.1 | 8.7 | 0.00 | 0.00 | 0.00 | 81 | 1012.6 |
| 20260905170650 | 68 | 342 | 5.2 | 7.8 | 0.00 | 0.00 | 0.00 | 81 | 1012.7 |
| 20260905170610 | 68 | 313 | 5.2 | 7.8 | 0.00 | 0.00 | 0.00 | 81 | 1012.6 |
| 20260905170441 | 68 | 323 | 4.3 | 9.6 | 0.00 | 0.00 | 0.00 | 81 | 1012.6 |
| 20260905170335 | 68 | 338 | 5.2 | 9.6 | 0.00 | 0.00 | 0.00 | 81 | 1012.6 |
| 20260905170145 | 68 | 323 | 3.5 | 9.6 | 0.00 | 0.00 | 0.00 | 82 | 1012.6 |
| 20260905170106 | 68 | 313 | 3.5 | 9.6 | 0.00 | 0.00 | 0.00 | 81 | 1012.6 |
| 20260905165928 | 68 | 338 | 4.3 | 9.6 | 0.00 | 0.00 | 0.00 | 81 | 1012.6 |
| 20260905165855 | 68 | 315 | 3.5 | 9.6 | 0.00 | 0.00 | 0.00 | 82 | 1012.6 |
| 20260905165704 | 68 | 300 | 6.1 | 9.6 | 0.00 | 0.00 | 0.00 | 81 | 1012.7 |
| 20260905165619 | 68 | 333 | 6.1 | 9.6 | 0.00 | 0.00 | 0.00 | 82 | 1012.6 |
| 20260905165430 | 68 | 311 | 3.5 | 7.8 | 0.00 | 0.00 | 0.00 | 82 | 1012.6 |
| 20260905165343 | 68 | 323 | 3.5 | 7.8 | 0.00 | 0.00 | 0.00 | 81 | 1012.6 |
| 20260905165134 | 68 | 343 | 4.3 | 7.8 | 0.00 | 0.00 | 0.00 | 83 | 1012.7 |
| 20260905165030 | 68 | 335 | 4.3 | 7.8 | 0.00 | 0.00 | 0.00 | 83 | 1012.7 |
| 20260905164952 | 68 | 350 | 4.3 | 7.0 | 0.00 | 0.00 | 0.00 | 83 | 1012.6 |
| 20260905164854 | 68 | 12 | 3.5 | 8.7 | 0.00 | 0.00 | 0.00 | 84 | 1012.6 |
| 20260905164816 | 67 | 343 | 3.5 | 8.7 | 0.00 | 0.00 | 0.00 | 84 | 1012.6 |
| 20260905164624 | 67 | 315 | 3.5 | 8.7 | 0.00 | 0.00 | 0.00 | 83 | 1012.6 |
| 20260905164526 | 67 | 329 | 3.5 | 9.6 | 0.00 | 0.00 | 0.00 | 84 | 1012.6 |
| 20260905164409 | 67 | 296 | 4.3 | 9.6 | 0.00 | 0.00 | 0.00 | 83 | 1012.6 |
| 20260905164330 | 67 | 344 | 4.3 | 9.6 | 0.00 | 0.00 | 0.00 | 82 | 1012.6 |
| 20260905164134 | 67 | 324 | 5.2 | 9.6 | 0.00 | 0.00 | 0.00 | 82 | 1012.6 |
| 20260905164037 | 67 | 300 | 5.2 | 11.3 | 0.00 | 0.00 | 0.00 | 83 | 1012.7 |
| 20260905163923 | 67 | 330 | 4.3 | 11.3 | 0.00 | 0.00 | 0.00 | 83 | 1012.7 |
| 20260905163844 | 67 | 355 | 5.2 | 11.3 | 0.00 | 0.00 | 0.00 | 82 | 1012.7 |
| 20260905163717 | 67 | 327 | 5.2 | 11.3 | 0.00 | 0.00 | 0.00 | 82 | 1012.7 |
| 20260905163633 | 68 | 346 | 4.3 | 11.3 | 0.00 | 0.00 | 0.00 | 82 | 1012.7 |
| 20260905163443 | 68 | 339 | 7.0 | 11.3 | 0.00 | 0.00 | 0.00 | 81 | 1012.7 |
| 20260905163343 | 68 | 340 | 7.0 | 11.3 | 0.00 | 0.00 | 0.00 | 81 | 1012.7 |
| 20260905163145 | 68 | 300 | 5.2 | 8.7 | 0.00 | 0.00 | 0.00 | 81 | 1012.7 |
| 20260905163107 | 68 | 327 | 5.2 | 7.8 | 0.00 | 0.00 | 0.00 | 81 | 1012.7 |
| 20260905162946 | 68 | 325 | 4.3 | 7.8 | 0.00 | 0.00 | 0.00 | 81 | 1012.7 |
| 20260905162842 | 68 | 346 | 3.5 | 7.8 | 0.00 | 0.00 | 0.00 | 82 | 1012.7 |
| 20260905162736 | 68 | 330 | 3.5 | 9.6 | 0.00 | 0.00 | 0.00 | 82 | 1012.8 |
| 20260905162638 | 68 | 338 | 2.6 | 9.6 | 0.00 | 0.00 | 0.00 | 82 | 1012.7 |
| 20260905162605 | 68 | 9 | 2.6 | 9.6 | 0.00 | 0.00 | 0.00 | 82 | 1012.8 |
| 20260905162507 | 68 | 318 | 1.7 | 9.6 | 0.00 | 0.00 | 0.00 | 82 | 1012.7 |
| 20260905162428 | 68 | 339 | 1.7 | 9.6 | 0.00 | 0.00 | 0.00 | 82 | 1012.7 |
| 20260905162233 | 68 | 330 | 4.3 | 11.3 | 0.00 | 0.00 | 0.00 | 82 | 1012.8 |
| 20260905162136 | 68 | 342 | 5.2 | 11.3 | 0.00 | 0.00 | 0.00 | 81 | 1012.8 |
| 20260905162041 | 68 | 316 | 6.1 | 11.3 | 0.00 | 0.00 | 0.00 | 81 | 1012.8 |
| 20260905161941 | 68 | 20 | 5.2 | 11.3 | 0.00 | 0.00 | 0.00 | 81 | 1012.8 |
| 20260905161810 | 68 | 344 | 5.2 | 11.3 | 0.00 | 0.00 | 0.00 | 81 | 1012.8 |
| 20260905161726 | 68 | 304 | 5.2 | 11.3 | 0.00 | 0.00 | 0.00 | 81 | 1012.8 |
| 20260905161555 | 68 | 305 | 7.0 | 11.3 | 0.00 | 0.00 | 0.00 | 80 | 1012.7 |
| 20260905161518 | 68 | 355 | 7.0 | 11.3 | 0.00 | 0.00 | 0.00 | 81 | 1012.8 |
| 20260905161326 | 68 | 339 | 7.0 | 11.3 | 0.00 | 0.00 | 0.00 | 80 | 1012.8 |
| 20260905161247 | 68 | 355 | 6.1 | 9.6 | 0.00 | 0.00 | 0.00 | 81 | 1012.7 |
| 20260905161150 | 68 | 314 | 5.2 | 9.6 | 0.00 | 0.00 | 0.00 | 81 | 1012.8 |
| 20260905161030 | 68 | 340 | 6.1 | 9.6 | 0.00 | 0.00 | 0.00 | 80 | 1012.8 |
| 20260905160926 | 68 | 346 | 5.2 | 11.3 | 0.00 | 0.00 | 0.00 | 81 | 1012.8 |
| 20260905160834 | 68 | 331 | 4.3 | 11.3 | 0.00 | 0.00 | 0.00 | 80 | 1012.8 |
| 20260905160736 | 68 | 325 | 4.3 | 11.3 | 0.00 | 0.00 | 0.00 | 80 | 1012.8 |
| 20260905160624 | 68 | 360 | 5.2 | 11.3 | 0.00 | 0.00 | 0.00 | 80 | 1012.7 |
| 20260905160545 | 68 | 346 | 5.2 | 11.3 | 0.00 | 0.00 | 0.00 | 80 | 1012.7 |
| 20260905160417 | 68 | 325 | 4.3 | 11.3 | 0.00 | 0.00 | 0.00 | 81 | 1012.7 |
| 20260905160332 | 68 | 337 | 5.2 | 11.3 | 0.00 | 0.00 | 0.00 | 80 | 1012.7 |
| 20260905160143 | 68 | 315 | 7.0 | 11.3 | 0.00 | 0.00 | 0.00 | 80 | 1012.8 |
| 20260905160039 | 68 | 325 | 6.1 | 9.6 | 0.00 | 0.00 | 0.00 | 81 | 1012.8 |
| 20260905160009 | 68 | 355 | 6.1 | 9.6 | 0.00 | 0.00 | 0.00 | 81 | 1012.8 |
| 20260905155914 | 68 | 340 | 6.1 | 9.6 | 0.00 | 0.00 | 0.00 | 81 | 1012.8 |
| 20260905155836 | 68 | 344 | 5.2 | 8.7 | 0.00 | 0.00 | 0.00 | 80 | 1012.8 |
| 20260905155644 | 68 | 310 | 3.5 | 8.7 | 0.00 | 0.00 | 0.00 | 82 | 1012.8 |
| 20260905155524 | 68 | 317 | 3.5 | 8.7 | 0.00 | 0.00 | 0.00 | 81 | 1012.7 |
| 20260905155429 | 68 | 351 | 2.6 | 8.7 | 0.00 | 0.00 | 0.00 | 82 | 1012.8 |
| 20260905155332 | 68 | 360 | 3.5 | 8.7 | 0.00 | 0.00 | 0.00 | 82 | 1012.8 |
| 20260905155253 | 68 | 313 | 4.3 | 8.7 | 0.00 | 0.00 | 0.00 | 80 | 1012.8 |
| 20260905155158 | 68 | 281 | 3.5 | 10.4 | 0.00 | 0.00 | 0.00 | 81 | 1012.7 |
| 20260905155059 | 68 | 324 | 3.5 | 10.4 | 0.00 | 0.00 | 0.00 | 81 | 1012.7 |
| 20260905155020 | 68 | 333 | 3.5 | 10.4 | 0.00 | 0.00 | 0.00 | 81 | 1012.7 |
| 20260905154902 | 68 | 311 | 3.5 | 10.4 | 0.00 | 0.00 | 0.00 | 81 | 1012.7 |
| 20260905154824 | 68 | 285 | 3.5 | 10.4 | 0.00 | 0.00 | 0.00 | 82 | 1012.7 |
| 20260905154628 | 68 | 355 | 4.3 | 10.4 | 0.00 | 0.00 | 0.00 | 81 | 1012.7 |
| 20260905154532 | 68 | 344 | 6.1 | 10.4 | 0.00 | 0.00 | 0.00 | 81 | 1012.7 |
| 20260905154436 | 68 | 340 | 7.0 | 10.4 | 0.00 | 0.00 | 0.00 | 80 | 1012.7 |
| 20260905154347 | 68 | 338 | 6.1 | 10.4 | 0.00 | 0.00 | 0.00 | 80 | 1012.8 |
| 20260905154308 | 68 | 337 | 6.1 | 10.4 | 0.00 | 0.00 | 0.00 | 80 | 1012.8 |
| 20260905154151 | 68 | 310 | 6.1 | 11.3 | 0.00 | 0.00 | 0.00 | 80 | 1012.7 |
| 20260905154111 | 68 | 327 | 5.2 | 11.3 | 0.00 | 0.00 | 0.00 | 80 | 1012.8 |
| 20260905153941 | 68 | 317 | 6.1 | 11.3 | 0.00 | 0.00 | 0.00 | 79 | 1012.8 |
| 20260905153832 | 68 | 341 | 7.0 | 11.3 | 0.00 | 0.00 | 0.00 | 79 | 1012.8 |
| 20260905153703 | 69 | 284 | 7.0 | 11.3 | 0.00 | 0.00 | 0.00 | 79 | 1012.7 |
| 20260905153624 | 69 | 342 | 7.0 | 11.3 | 0.00 | 0.00 | 0.00 | 79 | 1012.7 |
| 20260905153427 | 69 | 344 | 7.0 | 11.3 | 0.00 | 0.00 | 0.00 | 78 | 1012.7 |
| 20260905153332 | 69 | 331 | 5.2 | 11.3 | 0.00 | 0.00 | 0.00 | 78 | 1012.6 |
| 20260905153245 | 69 | 337 | 4.3 | 10.4 | 0.00 | 0.00 | 0.00 | 77 | 1012.6 |
| 20260905153145 | 69 | 340 | 6.1 | 10.4 | 0.00 | 0.00 | 0.00 | 78 | 1012.7 |
| 20260905153105 | 69 | 355 | 5.2 | 10.4 | 0.00 | 0.00 | 0.00 | 78 | 1012.7 |
| 20260905153012 | 69 | 342 | 4.3 | 10.4 | 0.00 | 0.00 | 0.00 | 78 | 1012.7 |
| 20260905152942 | 69 | 341 | 3.5 | 9.6 | 0.00 | 0.00 | 0.00 | 78 | 1012.6 |
| 20260905152812 | 69 | 339 | 5.2 | 11.3 | 0.00 | 0.00 | 0.00 | 76 | 1012.6 |
| 20260905152728 | 69 | 340 | 6.1 | 11.3 | 0.00 | 0.00 | 0.00 | 75 | 1012.6 |
| 20260905152557 | 70 | 331 | 5.2 | 11.3 | 0.00 | 0.00 | 0.00 | 76 | 1012.6 |
| 20260905152518 | 70 | 340 | 4.3 | 11.3 | 0.00 | 0.00 | 0.00 | 76 | 1012.6 |
| 20260905152341 | 70 | 355 | 5.2 | 11.3 | 0.00 | 0.00 | 0.00 | 77 | 1012.6 |
| 20260905152247 | 70 | 293 | 5.2 | 11.3 | 0.00 | 0.00 | 0.00 | 76 | 1012.6 |
| 20260905152131 | 70 | 328 | 7.8 | 11.3 | 0.00 | 0.00 | 0.00 | 77 | 1012.6 |
| 20260905152052 | 70 | 329 | 7.8 | 11.3 | 0.00 | 0.00 | 0.00 | 76 | 1012.6 |
| 20260905151924 | 69 | 346 | 5.2 | 10.4 | 0.00 | 0.00 | 0.00 | 77 | 1012.6 |
| 20260905151846 | 69 | 343 | 5.2 | 10.4 | 0.00 | 0.00 | 0.00 | 75 | 1012.6 |
| 20260905151746 | 69 | 277 | 5.2 | 10.4 | 0.00 | 0.00 | 0.00 | 76 | 1012.6 |
| 20260905151649 | 69 | 311 | 7.0 | 10.4 | 0.00 | 0.00 | 0.00 | 78 | 1012.6 |
| 20260905151549 | 69 | 336 | 7.0 | 10.4 | 0.00 | 0.00 | 0.00 | 77 | 1012.6 |
| 20260905151510 | 69 | 319 | 6.1 | 10.4 | 0.00 | 0.00 | 0.00 | 78 | 1012.6 |
| 20260905151416 | 69 | 9 | 6.1 | 10.4 | 0.00 | 0.00 | 0.00 | 78 | 1012.6 |
| 20260905151337 | 69 | 348 | 6.1 | 10.4 | 0.00 | 0.00 | 0.00 | 80 | 1012.6 |
| 20260905151213 | 69 | 343 | 4.3 | 7.8 | 0.00 | 0.00 | 0.00 | 80 | 1012.6 |
| 20260905151127 | 69 | 316 | 3.5 | 9.6 | 0.00 | 0.00 | 0.00 | 80 | 1012.6 |
| 20260905150936 | 68 | 338 | 4.3 | 9.6 | 0.00 | 0.00 | 0.00 | 79 | 1012.6 |
| 20260905150850 | 68 | 336 | 5.2 | 9.6 | 0.00 | 0.00 | 0.00 | 79 | 1012.6 |
| 20260905150720 | 68 | 316 | 3.5 | 9.6 | 0.00 | 0.00 | 0.00 | 80 | 1012.7 |
| 20260905150620 | 68 | 12 | 3.5 | 9.6 | 0.00 | 0.00 | 0.00 | 80 | 1012.6 |
| 20260905150442 | 68 | 16 | 4.3 | 10.4 | 0.00 | 0.00 | 0.00 | 80 | 1012.6 |
| 20260905150405 | 68 | 345 | 5.2 | 10.4 | 0.00 | 0.00 | 0.00 | 80 | 1012.7 |
| 20260905150134 | 68 | 348 | 4.3 | 10.4 | 0.00 | 0.00 | 0.00 | 80 | 1012.6 |
| 20260905150027 | 68 | 355 | 5.2 | 10.4 | 0.00 | 0.00 | 0.00 | 79 | 1012.6 |
| 20260905145954 | 68 | 351 | 4.3 | 10.4 | 0.00 | 0.00 | 0.00 | 80 | 1012.6 |
| 20260905145857 | 68 | 355 | 4.3 | 10.4 | 0.00 | 0.00 | 0.00 | 79 | 1012.6 |
| 20260905145819 | 68 | 360 | 6.1 | 10.4 | 0.00 | 0.00 | 0.00 | 78 | 1012.6 |
| 20260905145625 | 68 | 340 | 7.0 | 10.4 | 0.00 | 0.00 | 0.00 | 79 | 1012.5 |
| 20260905145525 | 68 | 360 | 6.1 | 9.6 | 0.00 | 0.00 | 0.00 | 80 | 1012.6 |
| 20260905145429 | 68 | 355 | 5.2 | 9.6 | 0.00 | 0.00 | 0.00 | 80 | 1012.5 |
| 20260905145350 | 68 | 349 | 4.3 | 9.6 | 0.00 | 0.00 | 0.00 | 80 | 1012.5 |
| 20260905145313 | 68 | 355 | 5.2 | 9.6 | 0.00 | 0.00 | 0.00 | 80 | 1012.6 |
| 20260905145215 | 68 | 342 | 6.1 | 10.4 | 0.00 | 0.00 | 0.00 | 80 | 1012.6 |
| 20260905145136 | 68 | 313 | 6.1 | 10.4 | 0.00 | 0.00 | 0.00 | 80 | 1012.6 |
| 20260905145005 | 68 | 336 | 6.1 | 10.4 | 0.00 | 0.00 | 0.00 | 79 | 1012.5 |
| 20260905144912 | 68 | 336 | 5.2 | 10.4 | 0.00 | 0.00 | 0.00 | 79 | 1012.6 |
| 20260905144754 | 69 | 346 | 4.3 | 10.4 | 0.00 | 0.00 | 0.00 | 79 | 1012.5 |
| 20260905144635 | 69 | 355 | 5.2 | 10.4 | 0.00 | 0.00 | 0.00 | 78 | 1012.6 |
| 20260905144538 | 69 | 331 | 7.0 | 10.4 | 0.00 | 0.00 | 0.00 | 78 | 1012.6 |
| 20260905144438 | 69 | 324 | 7.0 | 10.4 | 0.00 | 0.00 | 0.00 | 79 | 1012.6 |
| 20260905144310 | 69 | 350 | 6.1 | 10.4 | 0.00 | 0.00 | 0.00 | 79 | 1012.6 |
| 20260905144223 | 69 | 300 | 6.1 | 10.4 | 0.00 | 0.00 | 0.00 | 78 | 1012.6 |
| 20260905144034 | 69 | 344 | 5.2 | 10.4 | 0.00 | 0.00 | 0.00 | 80 | 1012.6 |
| 20260905143949 | 69 | 355 | 6.1 | 10.4 | 0.00 | 0.00 | 0.00 | 78 | 1012.5 |
| 20260905143757 | 69 | 9 | 7.0 | 10.4 | 0.00 | 0.00 | 0.00 | 80 | 1012.6 |
| 20260905143720 | 69 | 342 | 5.2 | 10.4 | 0.00 | 0.00 | 0.00 | 80 | 1012.6 |
| 20260905143638 | 69 | 348 | 5.2 | 10.4 | 0.00 | 0.00 | 0.00 | 81 | 1012.6 |
| 20260905143507 | 69 | 330 | 6.1 | 10.4 | 0.00 | 0.00 | 0.00 | 81 | 1012.5 |
| 20260905143409 | 68 | 336 | 6.1 | 10.4 | 0.00 | 0.00 | 0.00 | 81 | 1012.5 |
| 20260905143332 | 68 | 335 | 6.1 | 10.4 | 0.00 | 0.00 | 0.00 | 80 | 1012.5 |
| 20260905143213 | 68 | 333 | 4.3 | 8.7 | 0.00 | 0.00 | 0.00 | 81 | 1012.5 |
| 20260905143135 | 68 | 339 | 4.3 | 7.8 | 0.00 | 0.00 | 0.00 | 81 | 1012.5 |
| 20260905143005 | 68 | 317 | 4.3 | 7.8 | 0.00 | 0.00 | 0.00 | 81 | 1012.5 |
| 20260905142919 | 68 | 323 | 4.3 | 7.8 | 0.00 | 0.00 | 0.00 | 83 | 1012.5 |
| 20260905142727 | 68 | 343 | 0.9 | 7.8 | 0.00 | 0.00 | 0.00 | 82 | 1012.5 |
| 20260905142623 | 68 | 355 | 0.0 | 0.0 | 0.00 | 0.00 | 0.00 | 83 | 1012.5 |
| 20260905142545 | 68 | 336 | 0.0 | 0.0 | 0.00 | 0.00 | 0.00 | 84 | 1012.5 |
| 20260905142432 | 68 | 320 | 0.0 | 0.0 | 0.00 | 0.00 | 0.00 | 83 | 1012.4 |
| 20260905142332 | 67 | 360 | 0.0 | 0.0 | 0.00 | 0.00 | 0.00 | 83 | 1012.5 |
| 20260905142134 | 67 | 332 | 0.0 | 0.0 | 0.00 | 0.00 | 0.00 | 82 | 1012.4 |
| 20260905142057 | 67 | 325 | 0.0 | 0.0 | 0.00 | 0.00 | 0.00 | 83 | 1012.5 |
| 20260905142001 | 67 | 350 | 0.0 | 0.0 | 0.00 | 0.00 | 0.00 | 84 | 1012.5 |
| 20260905141923 | 67 | 326 | 0.0 | 0.0 | 0.00 | 0.00 | 0.00 | 84 | 1012.5 |
| 20260905141726 | 67 | 318 | 0.0 | 0.0 | 0.00 | 0.00 | 0.00 | 84 | 1012.5 |
| 20260905141627 | 67 | 329 | 0.0 | 0.0 | 0.00 | 0.00 | 0.00 | 83 | 1012.5 |
| 20260905141531 | 67 | 311 | 0.0 | 0.0 | 0.00 | 0.00 | 0.00 | 83 | 1012.5 |
| 20260905141456 | 67 | 333 | 0.0 | 0.0 | 0.00 | 0.00 | 0.00 | 83 | 1012.5 |
| 20260905141329 | 67 | 351 | 0.0 | 0.0 | 0.00 | 0.00 | 0.00 | 85 | 1012.5 |
| 20260905141231 | 67 | 325 | 0.0 | 0.0 | 0.00 | 0.00 | 0.00 | 85 | 1012.5 |
| 20260905141155 | 67 | 333 | 0.0 | 0.0 | 0.00 | 0.00 | 0.00 | 85 | 1012.5 |
| 20260905141038 | 67 | 313 | 0.0 | 0.0 | 0.00 | 0.00 | 0.00 | 84 | 1012.5 |
| 20260905140932 | 67 | 325 | 0.0 | 0.0 | 0.00 | 0.00 | 0.00 | 84 | 1012.5 |
| 20260905140826 | 67 | 293 | 0.0 | 0.0 | 0.00 | 0.00 | 0.00 | 85 | 1012.5 |
| 20260905140730 | 67 | 341 | 0.0 | 0.0 | 0.00 | 0.00 | 0.00 | 85 | 1012.4 |
| 20260905140653 | 67 | 335 | 0.0 | 0.0 | 0.00 | 0.00 | 0.00 | 84 | 1012.4 |
| 20260905140557 | 67 | 332 | 0.0 | 0.0 | 0.00 | 0.00 | 0.00 | 84 | 1012.4 |
| 20260905140520 | 67 | 343 | 0.0 | 0.0 | 0.00 | 0.00 | 0.00 | 84 | 1012.4 |
| 20260905140324 | 67 | 342 | 0.0 | 0.0 | 0.00 | 0.00 | 0.00 | 83 | 1012.4 |
| 20260905140224 | 67 | 333 | 0.0 | 0.0 | 0.00 | 0.00 | 0.00 | 84 | 1012.4 |
| 20260905140127 | 67 | 360 | 0.0 | 0.0 | 0.00 | 0.00 | 0.00 | 84 | 1012.4 |
| 20260905140049 | 67 | 355 | 0.0 | 0.0 | 0.00 | 0.00 | 0.00 | 85 | 1012.5 |
| 20260905140012 | 67 | 345 | 0.0 | 0.0 | 0.00 | 0.00 | 0.00 | 84 | 1012.4 |
| 20260905135855 | 67 | 355 | 0.0 | 0.0 | 0.00 | 0.00 | 0.00 | 86 | 1012.4 |
| 20260905135817 | 67 | 330 | 0.0 | 0.0 | 0.00 | 0.00 | 0.00 | 86 | 1012.4 |
| 20260905135625 | 67 | 340 | 0.0 | 0.0 | 0.00 | 0.00 | 0.00 | 87 | 1012.4 |
| 20260905135546 | 67 | 348 | 0.0 | 0.0 | 0.00 | 0.00 | 0.00 | 87 | 1012.5 |
| 20260905135509 | 67 | 321 | 0.0 | 0.0 | 0.00 | 0.00 | 0.00 | 87 | 1012.5 |
| 20260905135349 | 66 | 355 | 0.0 | 0.0 | 0.00 | 0.00 | 0.00 | 87 | 1012.5 |
| 20260905135243 | 66 | 340 | 0.0 | 0.0 | 0.00 | 0.00 | 0.00 | 87 | 1012.5 |
| 20260905135204 | 66 | 355 | 0.0 | 0.0 | 0.00 | 0.00 | 0.00 | 87 | 1012.5 |
| 20260905135107 | 66 | 326 | 0.0 | 0.0 | 0.00 | 0.00 | 0.00 | 87 | 1012.5 |
| 20260905135029 | 66 | 339 | 0.0 | 0.0 | 0.00 | 0.00 | 0.00 | 87 | 1012.5 |
| 20260905134832 | 66 | 331 | 0.0 | 0.0 | 0.00 | 0.00 | 0.00 | 88 | 1012.5 |
| 20260905134737 | 66 | 342 | 0.0 | 0.0 | 0.00 | 0.00 | 0.00 | 87 | 1012.5 |
| 20260905134641 | 66 | 319 | 0.0 | 0.0 | 0.00 | 0.00 | 0.00 | 87 | 1012.5 |
| 20260905134604 | 66 | 338 | 0.0 | 0.0 | 0.00 | 0.00 | 0.00 | 88 | 1012.5 |
| 20260905134411 | 65 | 333 | 0.0 | 0.0 | 0.00 | 0.00 | 0.00 | 88 | 1012.4 |
| 20260905134305 | 65 | 331 | 0.0 | 0.0 | 0.00 | 0.00 | 0.00 | 87 | 1012.5 |
| 20260905134114 | 65 | 344 | 0.0 | 0.0 | 0.00 | 0.00 | 0.00 | 87 | 1012.5 |
| 20260905134014 | 65 | 322 | 0.0 | 0.0 | 0.00 | 0.00 | 0.00 | 87 | 1012.5 |
| 20260905133846 | 65 | 346 | 0.0 | 0.0 | 0.00 | 0.00 | 0.00 | 87 | 1012.5 |
| 20260905133739 | 66 | 315 | 0.0 | 0.0 | 0.00 | 0.00 | 0.00 | 87 | 1012.5 |
| 20260905133622 | 66 | 338 | 0.0 | 0.0 | 0.00 | 0.00 | 0.00 | 88 | 1012.4 |
| 20260905133544 | 65 | 317 | 0.0 | 0.0 | 0.00 | 0.00 | 0.00 | 88 | 1012.5 |
| 20260905133509 | 65 | 330 | 0.0 | 0.0 | 0.00 | 0.00 | 0.00 | 88 | 1012.5 |
| 20260905133352 | 65 | 346 | 0.0 | 0.0 | 0.00 | 0.00 | 0.00 | 88 | 1012.5 |
| 20260905133253 | 65 | 343 | 0.0 | 0.0 | 0.00 | 0.00 | 0.00 | 89 | 1012.5 |
| 20260905133123 | 65 | 303 | 0.0 | 0.0 | 0.00 | 0.00 | 0.00 | 88 | 1012.4 |
| 20260905133015 | 65 | 343 | 0.0 | 0.0 | 0.00 | 0.00 | 0.00 | 88 | 1012.4 |
| 20260905132826 | 65 | 342 | 0.0 | 0.0 | 0.00 | 0.00 | 0.00 | 88 | 1012.4 |
| 20260905132742 | 65 | 5 | 0.0 | 0.0 | 0.00 | 0.00 | 0.00 | 89 | 1012.4 |
| 20260905132611 | 65 | 321 | 0.0 | 0.0 | 0.00 | 0.00 | 0.00 | 89 | 1012.3 |
| 20260905132531 | 65 | 355 | 0.0 | 0.0 | 0.00 | 0.00 | 0.00 | 89 | 1012.3 |
| 20260905132402 | 65 | 346 | 0.0 | 0.0 | 0.00 | 0.00 | 0.00 | 89 | 1012.3 |
| 20260905132234 | 65 | 334 | 0.0 | 0.0 | 0.00 | 0.00 | 0.00 | 89 | 1012.3 |
| 20260905132123 | 65 | 315 | 0.0 | 0.0 | 0.00 | 0.00 | 0.00 | 89 | 1012.3 |
| 20260905132044 | 65 | 346 | 0.0 | 0.0 | 0.00 | 0.00 | 0.00 | 89 | 1012.3 |
| 20260905132005 | 65 | 339 | 0.0 | 0.0 | 0.00 | 0.00 | 0.00 | 88 | 1012.3 |
| 20260905131911 | 65 | 315 | 0.0 | 0.0 | 0.00 | 0.00 | 0.00 | 88 | 1012.3 |
| 20260905131810 | 65 | 313 | 0.0 | 0.0 | 0.00 | 0.00 | 0.00 | 89 | 1012.3 |
| 20260905131619 | 65 | 344 | 0.0 | 0.0 | 0.00 | 0.00 | 0.00 | 89 | 1012.3 |
| 20260905131533 | 65 | 344 | 0.0 | 0.0 | 0.00 | 0.00 | 0.00 | 89 | 1012.3 |
| 20260905131404 | 65 | 344 | 0.0 | 0.0 | 0.00 | 0.00 | 0.00 | 89 | 1012.3 |
| 20260905131314 | 65 | 331 | 0.0 | 0.0 | 0.00 | 0.00 | 0.00 | 89 | 1012.3 |
| 20260905131138 | 65 | 350 | 0.0 | 0.0 | 0.00 | 0.00 | 0.00 | 88 | 1012.3 |
| 20260905131025 | 65 | 292 | 0.0 | 0.0 | 0.00 | 0.00 | 0.00 | 88 | 1012.3 |
| 20260905130927 | 65 | 336 | 0.0 | 0.0 | 0.00 | 0.00 | 0.00 | 90 | 1012.3 |
| 20260905130846 | 65 | 317 | 0.0 | 0.0 | 0.00 | 0.00 | 0.00 | 89 | 1012.2 |
| 20260905130716 | 65 | 340 | 0.0 | 0.0 | 0.00 | 0.00 | 0.00 | 89 | 1012.2 |
| 20260905130631 | 65 | 311 | 0.0 | 0.0 | 0.00 | 0.00 | 0.00 | 90 | 1012.2 |
| 20260905130502 | 65 | 17 | 0.0 | 0.0 | 0.00 | 0.00 | 0.00 | 90 | 1012.1 |
| 20260905130422 | 65 | 324 | 0.0 | 0.0 | 0.00 | 0.00 | 0.00 | 90 | 1012.1 |
| 20260905130226 | 65 | 322 | 0.0 | 0.0 | 0.00 | 0.00 | 0.00 | 90 | 1012.1 |
| 20260905130147 | 65 | 331 | 0.0 | 0.0 | 0.00 | 0.00 | 0.00 | 89 | 1012.1 |
| 20260905130050 | 65 | 327 | 0.0 | 0.0 | 0.00 | 0.00 | 0.00 | 91 | 1012.1 |
| 20260905125950 | 65 | 343 | 0.0 | 0.0 | 0.00 | 0.00 | 0.00 | 91 | 1012.1 |
| 20260905125911 | 65 | 344 | 0.0 | 0.0 | 0.00 | 0.00 | 0.00 | 90 | 1012.2 |
| 20260905125818 | 65 | 346 | 0.0 | 0.0 | 0.00 | 0.00 | 0.00 | 91 | 1012.1 |
| 20260905125719 | 65 | 344 | 0.0 | 0.0 | 0.00 | 0.00 | 0.00 | 91 | 1012.1 |
| 20260905125548 | 65 | 319 | 0.0 | 0.0 | 0.00 | 0.00 | 0.00 | 91 | 1012.1 |
| 20260905125423 | 65 | 313 | 0.0 | 0.0 | 0.00 | 0.00 | 0.00 | 90 | 1012.1 |
| 20260905125326 | 65 | 327 | 0.0 | 0.0 | 0.00 | 0.00 | 0.00 | 91 | 1012.1 |
| 20260905125227 | 64 | 311 | 0.0 | 0.0 | 0.00 | 0.00 | 0.00 | 91 | 1012.1 |
| 20260905125004 | 64 | 347 | 0.0 | 0.0 | 0.00 | 0.00 | 0.00 | 90 | 1012.0 |
| 20260905124927 | 64 | 331 | 0.0 | 0.0 | 0.00 | 0.00 | 0.00 | 91 | 1012.0 |
| 20260905124728 | 64 | 338 | 0.0 | 0.0 | 0.00 | 0.00 | 0.00 | 91 | 1012.0 |
| 20260905124651 | 64 | 344 | 0.0 | 0.0 | 0.00 | 0.00 | 0.00 | 92 | 1012.1 |
| 20260905124557 | 64 | 355 | 0.0 | 0.0 | 0.00 | 0.00 | 0.00 | 91 | 1012.1 |
| 20260905124518 | 64 | 329 | 0.0 | 0.0 | 0.00 | 0.00 | 0.00 | 91 | 1012.1 |
| 20260905124349 | 64 | 330 | 0.0 | 0.0 | 0.00 | 0.00 | 0.00 | 91 | 1012.1 |
| 20260905124305 | 64 | 327 | 0.0 | 0.0 | 0.00 | 0.00 | 0.00 | 91 | 1012.1 |
| 20260905124051 | 64 | 323 | 0.0 | 0.0 | 0.00 | 0.00 | 0.00 | 91 | 1012.1 |
| 20260905124012 | 64 | 313 | 0.0 | 0.0 | 0.00 | 0.00 | 0.00 | 91 | 1012.1 |
| 20260905123915 | 64 | 317 | 0.0 | 0.0 | 0.00 | 0.00 | 0.00 | 91 | 1012.1 |
| 20260905123836 | 64 | 355 | 0.0 | 0.0 | 0.00 | 0.00 | 0.00 | 91 | 1012.1 |
| 20260905123705 | 64 | 346 | 0.0 | 0.0 | 0.00 | 0.00 | 0.00 | 91 | 1012.2 |
| 20260905123619 | 64 | 336 | 0.0 | 0.0 | 0.00 | 0.00 | 0.00 | 91 | 1012.1 |
| 20260905123427 | 64 | 337 | 0.0 | 0.0 | 0.00 | 0.00 | 0.00 | 91 | 1012.2 |
| 20260905123328 | 64 | 319 | 0.0 | 0.0 | 0.00 | 0.00 | 0.00 | 91 | 1012.2 |
| 20260905123159 | 64 | 321 | 0.0 | 0.0 | 0.00 | 0.00 | 0.00 | 91 | 1012.2 |
| 20260905123037 | 64 | 349 | 0.0 | 0.0 | 0.00 | 0.00 | 0.00 | 91 | 1012.1 |
| 20260905122957 | 64 | 337 | 0.0 | 0.0 | 0.00 | 0.00 | 0.00 | 91 | 1012.1 |
| 20260905122911 | 64 | 5 | 0.0 | 0.0 | 0.00 | 0.00 | 0.00 | 91 | 1012.1 |
| 20260905122718 | 64 | 329 | 0.0 | 0.0 | 0.00 | 0.00 | 0.00 | 91 | 1012.0 |
| 20260905122642 | 64 | 311 | 0.0 | 0.0 | 0.00 | 0.00 | 0.00 | 91 | 1012.0 |
| 20260905122534 | 64 | 355 | 0.0 | 0.0 | 0.00 | 0.00 | 0.00 | 91 | 1012.0 |
| 20260905122406 | 64 | 346 | 0.0 | 0.0 | 0.00 | 0.00 | 0.00 | 91 | 1011.9 |
| 20260905122307 | 64 | 331 | 0.0 | 0.0 | 0.00 | 0.00 | 0.00 | 91 | 1011.9 |
| 20260905122149 | 64 | 360 | 0.0 | 0.0 | 0.00 | 0.00 | 0.00 | 91 | 1011.9 |
| 20260905122028 | 64 | 338 | 0.0 | 0.0 | 0.00 | 0.00 | 0.00 | 91 | 1011.9 |
| 20260905121932 | 64 | 328 | 0.0 | 0.0 | 0.00 | 0.00 | 0.00 | 91 | 1011.9 |
| 20260905121839 | 64 | 5 | 0.0 | 0.0 | 0.00 | 0.00 | 0.00 | 91 | 1011.9 |
| 20260905121759 | 64 | 342 | 0.0 | 0.0 | 0.00 | 0.00 | 0.00 | 91 | 1011.9 |
| 20260905121702 | 64 | 351 | 0.0 | 0.0 | 0.00 | 0.00 | 0.00 | 91 | 1011.9 |
| 20260905121544 | 64 | 348 | 0.0 | 0.0 | 0.00 | 0.00 | 0.00 | 91 | 1011.9 |
| 20260905121449 | 64 | 340 | 0.0 | 0.0 | 0.00 | 0.00 | 0.00 | 91 | 1011.9 |
| 20260905121349 | 64 | 350 | 0.0 | 0.0 | 0.00 | 0.00 | 0.00 | 91 | 1011.9 |
| 20260905121132 | 64 | 340 | 0.0 | 0.0 | 0.00 | 0.00 | 0.00 | 91 | 1011.9 |
| 20260905121035 | 64 | 337 | 0.0 | 0.0 | 0.00 | 0.00 | 0.00 | 91 | 1011.9 |
| 20260905120923 | 64 | 332 | 0.0 | 0.0 | 0.00 | 0.00 | 0.00 | 91 | 1011.9 |
| 20260905120844 | 64 | 338 | 0.0 | 0.0 | 0.00 | 0.00 | 0.00 | 91 | 1011.9 |
| 20260905120725 | 64 | 328 | 0.0 | 0.0 | 0.00 | 0.00 | 0.00 | 91 | 1011.9 |
| 20260905120648 | 64 | 329 | 0.0 | 0.0 | 0.00 | 0.00 | 0.00 | 91 | 1011.8 |
| 20260905120456 | 64 | 355 | 0.0 | 0.0 | 0.00 | 0.00 | 0.00 | 91 | 1011.8 |
| 20260905120350 | 64 | 333 | 0.0 | 0.0 | 0.00 | 0.00 | 0.00 | 91 | 1011.8 |
| 20260905120158 | 64 | 24 | 0.0 | 0.0 | 0.00 | 0.00 | 0.00 | 91 | 1011.8 |
| 20260905120121 | 64 | 355 | 0.0 | 0.0 | 0.00 | 0.00 | 0.00 | 91 | 1011.8 |
| 20260905120034 | 64 | 355 | 0.0 | 0.0 | 0.00 | 0.00 | 0.00 | 91 | 1011.8 |
| 20260905115905 | 64 | 340 | 0.0 | 0.0 | 0.00 | 0.00 | 0.00 | 91 | 1011.8 |
| 20260905115826 | 64 | 339 | 0.0 | 0.0 | 0.00 | 0.00 | 0.00 | 91 | 1011.8 |
| 20260905115657 | 64 | 355 | 0.0 | 0.0 | 0.00 | 0.00 | 0.00 | 91 | 1011.8 |
| 20260905115611 | 64 | 343 | 0.0 | 0.0 | 0.00 | 0.00 | 0.00 | 91 | 1011.8 |
| 20260905115437 | 63 | 9 | 0.0 | 0.0 | 0.00 | 0.00 | 0.00 | 91 | 1011.8 |
| 20260905115334 | 63 | 336 | 0.0 | 0.0 | 0.00 | 0.00 | 0.00 | 91 | 1011.8 |
| 20260905115229 | 63 | 344 | 0.0 | 0.0 | 0.00 | 0.00 | 0.00 | 91 | 1011.8 |
| 20260905115150 | 63 | 17 | 0.0 | 0.0 | 0.00 | 0.00 | 0.00 | 91 | 1011.8 |
| 20260905115111 | 63 | 334 | 0.0 | 0.0 | 0.00 | 0.00 | 0.00 | 92 | 1011.8 |
| 20260905115014 | 63 | 340 | 0.0 | 0.0 | 0.00 | 0.00 | 0.00 | 91 | 1011.8 |
| 20260905114936 | 63 | 340 | 0.0 | 0.0 | 0.00 | 0.00 | 0.00 | 92 | 1011.8 |
| 20260905114807 | 63 | 338 | 0.0 | 0.0 | 0.00 | 0.00 | 0.00 | 92 | 1011.8 |
| 20260905114719 | 63 | 360 | 0.0 | 0.0 | 0.00 | 0.00 | 0.00 | 92 | 1011.7 |
| 20260905114423 | 63 | 360 | 0.0 | 0.0 | 0.00 | 0.00 | 0.00 | 92 | 1011.7 |
| 20260905114336 | 63 | 5 | 0.0 | 0.0 | 0.00 | 0.00 | 0.00 | 92 | 1011.7 |
| 20260905114135 | 63 | 342 | 0.0 | 0.0 | 0.00 | 0.00 | 0.00 | 92 | 1011.7 |
| 20260905114030 | 63 | 336 | 0.0 | 0.0 | 0.00 | 0.00 | 0.00 | 92 | 1011.7 |
| 20260905113952 | 63 | 355 | 0.0 | 1.7 | 0.00 | 0.00 | 0.00 | 92 | 1011.7 |
| 20260905113915 | 63 | 348 | 0.0 | 5.2 | 0.00 | 0.00 | 0.00 | 92 | 1011.7 |
| 20260905113830 | 63 | 355 | 0.0 | 5.2 | 0.00 | 0.00 | 0.00 | 92 | 1011.7 |
| 20260905113659 | 63 | 339 | 0.0 | 5.2 | 0.00 | 0.00 | 0.00 | 92 | 1011.7 |
| 20260905113620 | 63 | 329 | 0.0 | 5.2 | 0.00 | 0.00 | 0.00 | 93 | 1011.7 |
| 20260905113426 | 63 | 333 | 0.0 | 5.2 | 0.00 | 0.00 | 0.00 | 92 | 1011.8 |
| 20260905113351 | 63 | 333 | 0.0 | 5.2 | 0.00 | 0.00 | 0.00 | 92 | 1011.7 |
| 20260905113236 | 63 | 305 | 0.9 | 5.2 | 0.00 | 0.00 | 0.00 | 93 | 1011.8 |
| 20260905113156 | 63 | 340 | 2.6 | 5.2 | 0.00 | 0.00 | 0.00 | 93 | 1011.7 |
| 20260905113007 | 63 | 324 | 3.5 | 5.2 | 0.00 | 0.00 | 0.00 | 93 | 1011.7 |
| 20260905112841 | 63 | 341 | 2.6 | 5.2 | 0.00 | 0.00 | 0.00 | 93 | 1011.7 |
| 20260905112723 | 63 | 336 | 3.5 | 5.2 | 0.00 | 0.00 | 0.00 | 93 | 1011.7 |
| 20260905112645 | 63 | 331 | 3.5 | 5.2 | 0.00 | 0.00 | 0.00 | 93 | 1011.7 |
| 20260905112516 | 63 | 348 | 2.6 | 5.2 | 0.00 | 0.00 | 0.00 | 93 | 1011.6 |
| 20260905112431 | 63 | 351 | 3.5 | 5.2 | 0.00 | 0.00 | 0.00 | 93 | 1011.6 |
| 20260905112301 | 63 | 322 | 2.6 | 5.2 | 0.00 | 0.00 | 0.00 | 93 | 1011.7 |
| 20260905112226 | 63 | 324 | 0.9 | 2.6 | 0.00 | 0.00 | 0.00 | 93 | 1011.7 |
| 20260905112031 | 63 | 333 | 0.0 | 0.0 | 0.00 | 0.00 | 0.00 | 93 | 1011.6 |
| 20260905111952 | 63 | 333 | 0.0 | 0.0 | 0.00 | 0.00 | 0.00 | 93 | 1011.6 |
| 20260905111855 | 63 | 342 | 0.0 | 0.0 | 0.00 | 0.00 | 0.00 | 93 | 1011.6 |
| 20260905111755 | 63 | 342 | 0.0 | 0.0 | 0.00 | 0.00 | 0.00 | 93 | 1011.6 |
| 20260905111716 | 63 | 350 | 0.0 | 0.0 | 0.00 | 0.00 | 0.00 | 93 | 1011.6 |
| 20260905111620 | 63 | 344 | 0.0 | 0.0 | 0.00 | 0.00 | 0.00 | 93 | 1011.6 |
| 20260905111521 | 63 | 344 | 0.0 | 0.0 | 0.00 | 0.00 | 0.00 | 93 | 1011.6 |
| 20260905111442 | 63 | 344 | 0.0 | 0.0 | 0.00 | 0.00 | 0.00 | 93 | 1011.6 |
| 20260905111304 | 63 | 345 | 0.0 | 0.0 | 0.00 | 0.00 | 0.00 | 93 | 1011.6 |
| 20260905111226 | 63 | 330 | 0.0 | 0.0 | 0.00 | 0.00 | 0.00 | 93 | 1011.6 |
| 20260905111040 | 63 | 348 | 0.0 | 0.0 | 0.00 | 0.00 | 0.00 | 93 | 1011.6 |
| 20260905110934 | 63 | 339 | 0.0 | 0.0 | 0.00 | 0.00 | 0.00 | 93 | 1011.6 |
| 20260905110856 | 63 | 347 | 0.0 | 0.0 | 0.00 | 0.00 | 0.00 | 93 | 1011.6 |
| 20260905110748 | 63 | 355 | 0.0 | 0.0 | 0.00 | 0.00 | 0.00 | 93 | 1011.6 |
| 20260905110629 | 63 | 5 | 0.0 | 0.0 | 0.00 | 0.00 | 0.00 | 93 | 1011.5 |
| 20260905110533 | 63 | 338 | 0.0 | 0.0 | 0.00 | 0.00 | 0.00 | 93 | 1011.5 |
| 20260905110432 | 63 | 338 | 0.0 | 0.0 | 0.00 | 0.00 | 0.00 | 93 | 1011.5 |
| 20260905110303 | 62 | 355 | 0.0 | 0.0 | 0.00 | 0.00 | 0.00 | 94 | 1011.5 |
| 20260905110155 | 62 | 355 | 0.0 | 0.0 | 0.00 | 0.00 | 0.00 | 94 | 1011.4 |
| 20260905110004 | 62 | 355 | 0.0 | 0.0 | 0.00 | 0.00 | 0.00 | 94 | 1011.4 |
| 20260905105925 | 62 | 355 | 0.0 | 0.0 | 0.00 | 0.00 | 0.00 | 94 | 1011.4 |
| 20260905105733 | 62 | 342 | 0.0 | 0.0 | 0.00 | 0.00 | 0.00 | 94 | 1011.4 |
| 20260905105654 | 62 | 342 | 0.0 | 0.0 | 0.00 | 0.00 | 0.00 | 94 | 1011.4 |
| 20260905105558 | 62 | 355 | 0.0 | 0.0 | 0.00 | 0.00 | 0.00 | 94 | 1011.4 |
| 20260905105440 | 62 | 360 | 0.0 | 0.0 | 0.00 | 0.00 | 0.00 | 94 | 1011.4 |
| 20260905105325 | 62 | 348 | 0.0 | 0.0 | 0.00 | 0.00 | 0.00 | 94 | 1011.4 |
| 20260905105247 | 62 | 343 | 0.0 | 0.0 | 0.00 | 0.00 | 0.00 | 94 | 1011.4 |
| 20260905105208 | 62 | 15 | 0.0 | 0.0 | 0.00 | 0.00 | 0.00 | 94 | 1011.4 |
| 20260905105113 | 62 | 22 | 0.0 | 0.0 | 0.00 | 0.00 | 0.00 | 95 | 1011.4 |
| 20260905105033 | 62 | 335 | 0.0 | 0.0 | 0.00 | 0.00 | 0.00 | 95 | 1011.4 |
| 20260905104904 | 62 | 355 | 0.0 | 0.0 | 0.00 | 0.00 | 0.00 | 95 | 1011.3 |
| 20260905104824 | 62 | 355 | 0.0 | 0.0 | 0.00 | 0.00 | 0.00 | 95 | 1011.3 |
| 20260905104634 | 62 | 355 | 0.0 | 0.0 | 0.00 | 0.00 | 0.00 | 95 | 1011.2 |
| 20260905104548 | 62 | 355 | 0.0 | 0.0 | 0.00 | 0.00 | 0.00 | 95 | 1011.3 |
| 20260905104419 | 62 | 355 | 0.0 | 0.0 | 0.00 | 0.00 | 0.00 | 95 | 1011.3 |
| 20260905104341 | 62 | 355 | 0.0 | 0.0 | 0.00 | 0.00 | 0.00 | 95 | 1011.3 |
| 20260905104211 | 62 | 355 | 0.0 | 0.0 | 0.00 | 0.00 | 0.00 | 95 | 1011.3 |
| 20260905104115 | 62 | 355 | 0.0 | 0.0 | 0.00 | 0.00 | 0.00 | 95 | 1011.3 |
| 20260905104037 | 62 | 344 | 0.0 | 0.0 | 0.00 | 0.00 | 0.00 | 95 | 1011.3 |
| 20260905103845 | 62 | 355 | 0.0 | 0.0 | 0.00 | 0.00 | 0.00 | 95 | 1011.3 |
| 20260905103740 | 62 | 355 | 0.0 | 0.0 | 0.00 | 0.00 | 0.00 | 95 | 1011.3 |
| 20260905103627 | 62 | 355 | 0.0 | 0.0 | 0.00 | 0.00 | 0.00 | 96 | 1011.3 |
| 20260905103548 | 62 | 355 | 0.0 | 0.0 | 0.00 | 0.00 | 0.00 | 95 | 1011.3 |
| 20260905103512 | 62 | 355 | 0.0 | 0.0 | 0.00 | 0.00 | 0.00 | 96 | 1011.2 |
| 20260905103415 | 62 | 355 | 0.0 | 0.0 | 0.00 | 0.00 | 0.00 | 95 | 1011.2 |
| 20260905103337 | 62 | 355 | 0.0 | 0.0 | 0.00 | 0.00 | 0.00 | 95 | 1011.2 |
| 20260905103204 | 62 | 355 | 0.0 | 0.0 | 0.00 | 0.00 | 0.00 | 95 | 1011.3 |
| 20260905103119 | 62 | 355 | 0.0 | 0.0 | 0.00 | 0.00 | 0.00 | 95 | 1011.3 |
| 20260905102929 | 61 | 355 | 0.0 | 0.0 | 0.00 | 0.00 | 0.00 | 95 | 1011.3 |
| 20260905102840 | 61 | 350 | 0.0 | 0.0 | 0.00 | 0.00 | 0.00 | 95 | 1011.2 |
| 20260905102711 | 61 | 350 | 0.0 | 0.0 | 0.00 | 0.00 | 0.00 | 95 | 1011.2 |
| 20260905102632 | 61 | 5 | 0.0 | 0.0 | 0.00 | 0.00 | 0.00 | 95 | 1011.2 |
| 20260905102440 | 61 | 11 | 0.0 | 0.0 | 0.00 | 0.00 | 0.00 | 96 | 1011.2 |
| 20260905102340 | 61 | 11 | 0.0 | 0.0 | 0.00 | 0.00 | 0.00 | 96 | 1011.2 |
| 20260905102243 | 61 | 11 | 0.0 | 0.0 | 0.00 | 0.00 | 0.00 | 96 | 1011.2 |
| 20260905102204 | 61 | 11 | 0.0 | 0.0 | 0.00 | 0.00 | 0.00 | 96 | 1011.2 |